| time (UTC) | temp C | wind direction | speed KPH | gust KPH | rain 1hr cm | rain 24hr cm | rain mn cm | humidity % | barometer mb |
| 20260903195437 | 27 | 208 | 4.8 | 12.9 | 0.00 | 0.79 | 0.79 | 71 | 1010.3 |
| 20260903195331 | 27 | 188 | 3.2 | 12.9 | 0.00 | 0.79 | 0.79 | 70 | 1010.2 |
| 20260903195224 | 27 | 126 | 4.8 | 12.9 | 0.00 | 0.79 | 0.79 | 69 | 1010.2 |
| 20260903195148 | 27 | 153 | 6.4 | 12.9 | 0.00 | 0.79 | 0.79 | 68 | 1010.2 |
| 20260903195110 | 27 | 137 | 8.0 | 12.9 | 0.00 | 0.79 | 0.79 | 69 | 1010.3 |
| 20260903195016 | 27 | 138 | 6.4 | 12.9 | 0.00 | 0.79 | 0.79 | 69 | 1010.3 |
| 20260903194937 | 27 | 157 | 4.8 | 12.9 | 0.00 | 0.79 | 0.79 | 69 | 1010.3 |
| 20260903194807 | 27 | 157 | 6.4 | 12.9 | 0.00 | 0.79 | 0.79 | 71 | 1010.3 |
| 20260903194712 | 27 | 138 | 6.4 | 12.9 | 0.00 | 0.79 | 0.79 | 70 | 1010.3 |
| 20260903194516 | 27 | 130 | 4.8 | 12.9 | 0.00 | 0.79 | 0.79 | 72 | 1010.3 |
| 20260903194442 | 27 | 162 | 6.4 | 12.9 | 0.00 | 0.79 | 0.79 | 70 | 1010.3 |
| 20260903194312 | 27 | 148 | 4.8 | 16.1 | 0.00 | 0.79 | 0.79 | 71 | 1010.4 |
| 20260903194232 | 27 | 153 | 4.8 | 16.1 | 0.00 | 0.79 | 0.79 | 72 | 1010.4 |
| 20260903194035 | 27 | 164 | 6.4 | 16.1 | 0.00 | 0.79 | 0.79 | 71 | 1010.4 |
| 20260903193956 | 27 | 163 | 8.0 | 16.1 | 0.00 | 0.79 | 0.79 | 71 | 1010.4 |
| 20260903193900 | 27 | 128 | 6.4 | 16.1 | 0.00 | 0.79 | 0.79 | 72 | 1010.4 |
| 20260903193822 | 27 | 119 | 8.0 | 16.1 | 0.00 | 0.79 | 0.79 | 73 | 1010.4 |
| 20260903193744 | 26 | 164 | 8.0 | 16.1 | 0.00 | 0.79 | 0.79 | 73 | 1010.4 |
| 20260903193619 | 26 | 200 | 11.3 | 16.1 | 0.00 | 0.79 | 0.79 | 72 | 1010.5 |
| 20260903193532 | 26 | 171 | 11.3 | 16.1 | 0.00 | 0.79 | 0.79 | 70 | 1010.5 |
| 20260903193344 | 27 | 167 | 8.0 | 16.1 | 0.00 | 0.79 | 0.79 | 71 | 1010.5 |
| 20260903193239 | 27 | 167 | 4.8 | 16.1 | 0.00 | 0.79 | 0.79 | 73 | 1010.5 |
| 20260903193124 | 26 | 179 | 6.4 | 16.1 | 0.00 | 0.79 | 0.79 | 71 | 1010.5 |
| 20260903193044 | 26 | 184 | 9.7 | 16.1 | 0.00 | 0.79 | 0.79 | 71 | 1010.5 |
| 20260903193006 | 26 | 202 | 11.3 | 16.1 | 0.00 | 0.79 | 0.79 | 71 | 1010.5 |
| 20260903192840 | 26 | 207 | 6.4 | 17.7 | 0.00 | 0.79 | 0.79 | 73 | 1010.5 |
| 20260903192740 | 26 | 184 | 4.8 | 17.7 | 0.00 | 0.79 | 0.79 | 73 | 1010.6 |
| 20260903192627 | 26 | 127 | 8.0 | 17.7 | 0.00 | 0.79 | 0.79 | 72 | 1010.5 |
| 20260903192548 | 26 | 109 | 9.7 | 17.7 | 0.00 | 0.79 | 0.79 | 72 | 1010.6 |
| 20260903192442 | 26 | 205 | 9.7 | 17.7 | 0.00 | 0.79 | 0.79 | 71 | 1010.5 |
| 20260903192405 | 26 | 139 | 9.7 | 17.7 | 0.00 | 0.79 | 0.79 | 73 | 1010.5 |
| 20260903192240 | 26 | 131 | 11.3 | 17.7 | 0.00 | 0.79 | 0.79 | 71 | 1010.5 |
| 20260903192159 | 26 | 155 | 9.7 | 17.7 | 0.00 | 0.79 | 0.79 | 72 | 1010.5 |
| 20260903192042 | 26 | 161 | 8.0 | 16.1 | 0.00 | 0.79 | 0.79 | 71 | 1010.5 |
| 20260903191942 | 26 | 180 | 8.0 | 17.7 | 0.00 | 0.79 | 0.79 | 71 | 1010.5 |
| 20260903191813 | 26 | 154 | 9.7 | 17.7 | 0.00 | 0.79 | 0.79 | 72 | 1010.5 |
| 20260903191726 | 26 | 138 | 11.3 | 20.9 | 0.00 | 0.79 | 0.79 | 72 | 1010.5 |
| 20260903191541 | 26 | 159 | 9.7 | 20.9 | 0.00 | 0.79 | 0.79 | 72 | 1010.5 |
| 20260903191435 | 26 | 191 | 8.0 | 20.9 | 0.00 | 0.79 | 0.79 | 72 | 1010.5 |
| 20260903191358 | 26 | 108 | 6.4 | 20.9 | 0.00 | 0.79 | 0.79 | 74 | 1010.5 |
| 20260903191317 | 26 | 145 | 8.0 | 20.9 | 0.00 | 0.79 | 0.79 | 73 | 1010.5 |
| 20260903191231 | 26 | 150 | 9.7 | 20.9 | 0.00 | 0.79 | 0.79 | 72 | 1010.5 |
| 20260903191014 | 26 | 175 | 11.3 | 20.9 | 0.00 | 0.79 | 0.79 | 72 | 1010.6 |
| 20260903190926 | 26 | 134 | 12.9 | 20.9 | 0.00 | 0.79 | 0.79 | 72 | 1010.6 |
| 20260903190829 | 26 | 137 | 11.3 | 20.9 | 0.00 | 0.79 | 0.79 | 73 | 1010.6 |
| 20260903190753 | 26 | 157 | 11.3 | 20.9 | 0.00 | 0.79 | 0.79 | 73 | 1010.6 |
| 20260903190713 | 26 | 150 | 9.7 | 17.7 | 0.00 | 0.79 | 0.79 | 72 | 1010.6 |
| 20260903190618 | 27 | 119 | 8.0 | 17.7 | 0.00 | 0.79 | 0.79 | 73 | 1010.6 |
| 20260903190540 | 26 | 169 | 8.0 | 17.7 | 0.00 | 0.79 | 0.79 | 73 | 1010.6 |
| 20260903190409 | 27 | 190 | 9.7 | 22.5 | 0.00 | 0.79 | 0.79 | 72 | 1010.6 |
| 20260903190242 | 26 | 184 | 4.8 | 22.5 | 0.00 | 0.79 | 0.79 | 74 | 1010.7 |
| 20260903190125 | 26 | 161 | 6.4 | 22.5 | 0.00 | 0.79 | 0.79 | 72 | 1010.6 |
| 20260903190046 | 26 | 195 | 8.0 | 22.5 | 0.00 | 0.79 | 0.79 | 72 | 1010.6 |
| 20260903185918 | 26 | 186 | 9.7 | 22.5 | 0.00 | 0.79 | 0.79 | 74 | 1010.6 |
| 20260903185833 | 26 | 177 | 11.3 | 22.5 | 0.00 | 0.79 | 0.79 | 72 | 1010.6 |
| 20260903185702 | 26 | 127 | 9.7 | 22.5 | 0.00 | 0.79 | 0.79 | 73 | 1010.6 |
| 20260903185605 | 26 | 171 | 9.7 | 22.5 | 0.00 | 0.79 | 0.79 | 72 | 1010.7 |
| 20260903185429 | 26 | 136 | 4.8 | 17.7 | 0.00 | 0.79 | 0.79 | 72 | 1010.7 |
| 20260903185351 | 26 | 149 | 4.8 | 17.7 | 0.00 | 0.79 | 0.79 | 73 | 1010.7 |
| 20260903185313 | 26 | 184 | 4.8 | 17.7 | 0.00 | 0.79 | 0.79 | 73 | 1010.7 |
| 20260903185217 | 26 | 211 | 9.7 | 17.7 | 0.00 | 0.79 | 0.79 | 71 | 1010.7 |
| 20260903185138 | 26 | 231 | 9.7 | 17.7 | 0.00 | 0.79 | 0.79 | 71 | 1010.7 |
| 20260903185009 | 26 | 157 | 9.7 | 17.7 | 0.00 | 0.79 | 0.79 | 71 | 1010.8 |
| 20260903184902 | 26 | 159 | 8.0 | 17.7 | 0.00 | 0.79 | 0.79 | 70 | 1010.8 |
| 20260903184730 | 26 | 234 | 8.0 | 17.7 | 0.00 | 0.79 | 0.79 | 72 | 1010.8 |
| 20260903184630 | 26 | 194 | 8.0 | 17.7 | 0.00 | 0.79 | 0.79 | 72 | 1010.8 |
| 20260903184433 | 26 | 125 | 9.7 | 17.7 | 0.00 | 0.79 | 0.79 | 73 | 1010.8 |
| 20260903184358 | 26 | 150 | 9.7 | 17.7 | 0.00 | 0.79 | 0.79 | 73 | 1010.9 |
| 20260903184223 | 26 | 153 | 11.3 | 17.7 | 0.00 | 0.79 | 0.79 | 71 | 1010.9 |
| 20260903184137 | 26 | 187 | 11.3 | 17.7 | 0.00 | 0.79 | 0.79 | 72 | 1010.8 |
| 20260903184007 | 26 | 159 | 11.3 | 17.7 | 0.00 | 0.79 | 0.79 | 71 | 1010.8 |
| 20260903183929 | 26 | 186 | 9.7 | 16.1 | 0.00 | 0.79 | 0.79 | 71 | 1010.8 |
| 20260903183732 | 26 | 145 | 11.3 | 17.7 | 0.00 | 0.79 | 0.79 | 72 | 1010.9 |
| 20260903183656 | 26 | 211 | 9.7 | 17.7 | 0.00 | 0.79 | 0.79 | 72 | 1010.9 |
| 20260903183541 | 26 | 199 | 9.7 | 17.7 | 0.00 | 0.79 | 0.79 | 73 | 1011.0 |
| 20260903183504 | 26 | 191 | 11.3 | 17.7 | 0.00 | 0.79 | 0.79 | 73 | 1011.0 |
| 20260903183316 | 26 | 144 | 9.7 | 17.7 | 0.00 | 0.79 | 0.79 | 71 | 1010.9 |
| 20260903183232 | 26 | 145 | 9.7 | 17.7 | 0.00 | 0.79 | 0.79 | 72 | 1010.9 |
| 20260903183102 | 26 | 174 | 9.7 | 17.7 | 0.00 | 0.79 | 0.79 | 74 | 1010.9 |
| 20260903183024 | 26 | 224 | 11.3 | 17.7 | 0.00 | 0.79 | 0.79 | 73 | 1010.9 |
| 20260903182848 | 26 | 153 | 12.9 | 17.7 | 0.00 | 0.79 | 0.79 | 70 | 1010.9 |
| 20260903182820 | 26 | 146 | 12.9 | 17.7 | 0.00 | 0.79 | 0.79 | 72 | 1010.9 |
| 20260903182633 | 26 | 241 | 6.4 | 16.1 | 0.00 | 0.79 | 0.79 | 73 | 1010.9 |
| 20260903182526 | 26 | 232 | 8.0 | 16.1 | 0.00 | 0.79 | 0.79 | 74 | 1011.0 |
| 20260903182448 | 26 | 190 | 8.0 | 16.1 | 0.00 | 0.79 | 0.79 | 73 | 1011.0 |
| 20260903182326 | 26 | 192 | 9.7 | 16.1 | 0.00 | 0.79 | 0.79 | 73 | 1011.0 |
| 20260903182239 | 26 | 210 | 9.7 | 16.1 | 0.00 | 0.79 | 0.79 | 73 | 1011.0 |
| 20260903182030 | 26 | 201 | 6.4 | 17.7 | 0.00 | 0.79 | 0.79 | 74 | 1011.0 |
| 20260903181925 | 26 | 142 | 9.7 | 17.7 | 0.00 | 0.79 | 0.79 | 74 | 1011.1 |
| 20260903181849 | 26 | 229 | 9.7 | 17.7 | 0.00 | 0.79 | 0.79 | 73 | 1011.1 |
| 20260903181752 | 26 | 184 | 12.9 | 17.7 | 0.00 | 0.79 | 0.79 | 73 | 1011.0 |
| 20260903181714 | 26 | 171 | 11.3 | 17.7 | 0.00 | 0.79 | 0.79 | 73 | 1011.0 |
| 20260903181544 | 26 | 173 | 6.4 | 17.7 | 0.00 | 0.79 | 0.79 | 74 | 1011.0 |
| 20260903181439 | 26 | 96 | 6.4 | 17.7 | 0.00 | 0.79 | 0.79 | 76 | 1011.1 |
| 20260903181326 | 26 | 175 | 9.7 | 17.7 | 0.00 | 0.79 | 0.79 | 75 | 1011.0 |
| 20260903181247 | 26 | 169 | 9.7 | 19.3 | 0.00 | 0.79 | 0.79 | 74 | 1011.1 |
| 20260903181116 | 26 | 144 | 6.4 | 16.1 | 0.00 | 0.79 | 0.79 | 76 | 1011.1 |
| 20260903181031 | 26 | 140 | 6.4 | 16.1 | 0.00 | 0.79 | 0.79 | 76 | 1011.1 |
| 20260903180840 | 26 | 211 | 9.7 | 16.1 | 0.00 | 0.79 | 0.79 | 75 | 1011.1 |
| 20260903180752 | 26 | 167 | 9.7 | 16.1 | 0.00 | 0.79 | 0.79 | 74 | 1011.1 |
| 20260903180636 | 26 | 205 | 9.7 | 16.1 | 0.00 | 0.79 | 0.79 | 75 | 1011.2 |
| 20260903180557 | 26 | 202 | 9.7 | 17.7 | 0.00 | 0.79 | 0.79 | 75 | 1011.1 |
| 20260903180519 | 26 | 178 | 9.7 | 17.7 | 0.00 | 0.79 | 0.79 | 76 | 1011.2 |
| 20260903180421 | 25 | 179 | 11.3 | 17.7 | 0.00 | 0.79 | 0.79 | 75 | 1011.2 |
| 20260903180320 | 25 | 188 | 11.3 | 17.7 | 0.00 | 0.79 | 0.79 | 75 | 1011.2 |
| 20260903180152 | 25 | 197 | 9.7 | 17.7 | 0.00 | 0.79 | 0.79 | 75 | 1011.1 |
| 20260903180048 | 25 | 167 | 9.7 | 17.7 | 0.00 | 0.79 | 0.79 | 76 | 1011.1 |
| 20260903175918 | 25 | 224 | 8.0 | 17.7 | 0.00 | 0.79 | 0.79 | 75 | 1011.2 |
| 20260903175839 | 25 | 203 | 9.7 | 17.7 | 0.00 | 0.79 | 0.79 | 75 | 1011.2 |
| 20260903175641 | 25 | 236 | 11.3 | 17.7 | 0.00 | 0.79 | 0.79 | 77 | 1011.2 |
| 20260903175602 | 25 | 220 | 11.3 | 16.1 | 0.00 | 0.79 | 0.79 | 77 | 1011.1 |
| 20260903175504 | 25 | 154 | 8.0 | 16.1 | 0.00 | 0.79 | 0.79 | 77 | 1011.2 |
| 20260903175404 | 25 | 157 | 9.7 | 16.1 | 0.00 | 0.79 | 0.79 | 76 | 1011.2 |
| 20260903175233 | 25 | 150 | 8.0 | 17.7 | 0.00 | 0.79 | 0.79 | 77 | 1011.2 |
| 20260903175126 | 25 | 165 | 4.8 | 16.1 | 0.00 | 0.79 | 0.79 | 78 | 1011.2 |
| 20260903174935 | 25 | 232 | 8.0 | 16.1 | 0.00 | 0.79 | 0.79 | 77 | 1011.2 |
| 20260903174834 | 25 | 183 | 8.0 | 16.1 | 0.00 | 0.79 | 0.79 | 78 | 1011.2 |
| 20260903174727 | 25 | 232 | 6.4 | 16.1 | 0.00 | 0.79 | 0.79 | 79 | 1011.1 |
| 20260903174628 | 25 | 161 | 9.7 | 16.1 | 0.00 | 0.79 | 0.79 | 78 | 1011.2 |
| 20260903174438 | 25 | 188 | 9.7 | 17.7 | 0.00 | 0.79 | 0.79 | 79 | 1011.3 |
| 20260903174331 | 25 | 175 | 9.7 | 16.1 | 0.00 | 0.79 | 0.79 | 78 | 1011.3 |
| 20260903174253 | 25 | 153 | 11.3 | 16.1 | 0.00 | 0.79 | 0.79 | 78 | 1011.3 |
| 20260903174155 | 25 | 157 | 9.7 | 16.1 | 0.00 | 0.79 | 0.79 | 77 | 1011.4 |
| 20260903174117 | 25 | 186 | 8.0 | 16.1 | 0.00 | 0.79 | 0.79 | 78 | 1011.3 |
| 20260903173946 | 25 | 182 | 11.3 | 16.1 | 0.00 | 0.79 | 0.79 | 77 | 1011.4 |
| 20260903173827 | 25 | 180 | 9.7 | 16.1 | 0.00 | 0.79 | 0.79 | 76 | 1011.4 |
| 20260903173730 | 25 | 253 | 9.7 | 14.5 | 0.00 | 0.79 | 0.79 | 77 | 1011.4 |
| 20260903173651 | 25 | 196 | 8.0 | 14.5 | 0.00 | 0.79 | 0.79 | 77 | 1011.4 |
| 20260903173521 | 25 | 183 | 8.0 | 16.1 | 0.00 | 0.79 | 0.79 | 78 | 1011.4 |
| 20260903173434 | 25 | 128 | 9.7 | 16.1 | 0.00 | 0.79 | 0.79 | 78 | 1011.4 |
| 20260903173304 | 25 | 173 | 8.0 | 16.1 | 0.00 | 0.79 | 0.79 | 79 | 1011.4 |
| 20260903173226 | 24 | 156 | 8.0 | 16.1 | 0.00 | 0.79 | 0.79 | 79 | 1011.4 |
| 20260903173031 | 24 | 157 | 8.0 | 17.7 | 0.00 | 0.79 | 0.79 | 78 | 1011.4 |
| 20260903172952 | 24 | 182 | 8.0 | 17.7 | 0.00 | 0.79 | 0.79 | 79 | 1011.4 |
| 20260903172855 | 24 | 165 | 8.0 | 17.7 | 0.00 | 0.79 | 0.79 | 80 | 1011.4 |
| 20260903172816 | 24 | 143 | 9.7 | 17.7 | 0.00 | 0.79 | 0.79 | 79 | 1011.4 |
| 20260903172651 | 24 | 153 | 9.7 | 17.7 | 0.00 | 0.79 | 0.79 | 78 | 1011.5 |
| 20260903172612 | 24 | 197 | 6.4 | 17.7 | 0.00 | 0.79 | 0.79 | 78 | 1011.5 |
| 20260903172526 | 24 | 178 | 4.8 | 17.7 | 0.00 | 0.79 | 0.79 | 80 | 1011.5 |
| 20260903172428 | 24 | 162 | 8.0 | 17.7 | 0.00 | 0.79 | 0.79 | 78 | 1011.5 |
| 20260903172327 | 24 | 211 | 11.3 | 17.7 | 0.00 | 0.79 | 0.79 | 78 | 1011.5 |
| 20260903172129 | 24 | 201 | 8.0 | 17.7 | 0.00 | 0.79 | 0.79 | 79 | 1011.5 |
| 20260903172050 | 24 | 172 | 6.4 | 17.7 | 0.00 | 0.79 | 0.79 | 78 | 1011.5 |
| 20260903171953 | 24 | 221 | 8.0 | 17.7 | 0.00 | 0.79 | 0.79 | 78 | 1011.5 |
| 20260903171830 | 24 | 188 | 6.4 | 17.7 | 0.00 | 0.79 | 0.79 | 79 | 1011.5 |
| 20260903171725 | 24 | 201 | 8.0 | 17.7 | 0.00 | 0.79 | 0.79 | 79 | 1011.5 |
| 20260903171650 | 24 | 229 | 9.7 | 17.7 | 0.00 | 0.79 | 0.79 | 79 | 1011.5 |
| 20260903171552 | 24 | 192 | 8.0 | 17.7 | 0.00 | 0.79 | 0.79 | 78 | 1011.6 |
| 20260903171514 | 24 | 217 | 8.0 | 16.1 | 0.00 | 0.79 | 0.79 | 79 | 1011.6 |
| 20260903171344 | 24 | 169 | 8.0 | 16.1 | 0.00 | 0.79 | 0.79 | 79 | 1011.5 |
| 20260903171239 | 24 | 179 | 9.7 | 16.1 | 0.00 | 0.79 | 0.79 | 79 | 1011.5 |
| 20260903171123 | 24 | 207 | 9.7 | 17.7 | 0.00 | 0.79 | 0.79 | 78 | 1011.6 |
| 20260903171044 | 24 | 190 | 8.0 | 17.7 | 0.00 | 0.79 | 0.79 | 78 | 1011.6 |
| 20260903170914 | 24 | 221 | 8.0 | 17.7 | 0.00 | 0.79 | 0.79 | 78 | 1011.6 |
| 20260903170817 | 24 | 217 | 8.0 | 17.7 | 0.00 | 0.79 | 0.79 | 79 | 1011.7 |
| 20260903170623 | 24 | 223 | 6.4 | 17.7 | 0.00 | 0.79 | 0.79 | 79 | 1011.6 |
| 20260903170536 | 24 | 219 | 6.4 | 17.7 | 0.00 | 0.79 | 0.79 | 79 | 1011.6 |
| 20260903170405 | 24 | 140 | 6.4 | 17.7 | 0.00 | 0.79 | 0.79 | 80 | 1011.6 |
| 20260903170327 | 24 | 192 | 6.4 | 17.7 | 0.00 | 0.79 | 0.79 | 78 | 1011.6 |
| 20260903170129 | 24 | 157 | 9.7 | 17.7 | 0.00 | 0.79 | 0.79 | 79 | 1011.7 |
| 20260903170051 | 24 | 173 | 8.0 | 20.9 | 0.00 | 0.79 | 0.79 | 79 | 1011.7 |
| 20260903165955 | 24 | 187 | 6.4 | 17.7 | 0.00 | 0.79 | 0.79 | 80 | 1011.7 |
| 20260903165854 | 24 | 234 | 8.0 | 17.7 | 0.00 | 0.79 | 0.79 | 79 | 1011.7 |
| 20260903165703 | 24 | 229 | 8.0 | 17.7 | 0.00 | 0.79 | 0.79 | 79 | 1011.7 |
| 20260903165617 | 24 | 244 | 8.0 | 17.7 | 0.00 | 0.79 | 0.79 | 79 | 1011.7 |
| 20260903165428 | 24 | 163 | 9.7 | 17.7 | 0.00 | 0.79 | 0.79 | 78 | 1011.7 |
| 20260903165347 | 24 | 164 | 9.7 | 19.3 | 0.00 | 0.79 | 0.79 | 78 | 1011.7 |
| 20260903165218 | 24 | 153 | 6.4 | 19.3 | 0.00 | 0.79 | 0.79 | 79 | 1011.6 |
| 20260903165140 | 24 | 162 | 6.4 | 19.3 | 0.00 | 0.79 | 0.79 | 79 | 1011.6 |
| 20260903164923 | 24 | 166 | 11.3 | 22.5 | 0.00 | 0.79 | 0.79 | 78 | 1011.6 |
| 20260903164847 | 24 | 140 | 11.3 | 22.5 | 0.00 | 0.79 | 0.79 | 78 | 1011.6 |
| 20260903164748 | 24 | 133 | 11.3 | 22.5 | 0.00 | 0.79 | 0.79 | 79 | 1011.7 |
| 20260903164649 | 24 | 149 | 11.3 | 22.5 | 0.00 | 0.79 | 0.79 | 79 | 1011.7 |
| 20260903164519 | 24 | 234 | 12.9 | 22.5 | 0.00 | 0.79 | 0.79 | 78 | 1011.7 |
| 20260903164432 | 24 | 178 | 14.5 | 22.5 | 0.00 | 0.79 | 0.79 | 78 | 1011.7 |
| 20260903164242 | 24 | 170 | 14.5 | 22.5 | 0.00 | 0.79 | 0.79 | 79 | 1011.6 |
| 20260903164142 | 23 | 176 | 11.3 | 22.5 | 0.00 | 0.79 | 0.79 | 80 | 1011.6 |
| 20260903164027 | 23 | 161 | 11.3 | 22.5 | 0.00 | 0.79 | 0.79 | 79 | 1011.6 |
| 20260903163949 | 23 | 188 | 12.9 | 22.5 | 0.00 | 0.79 | 0.79 | 78 | 1011.6 |
| 20260903163818 | 23 | 107 | 11.3 | 22.5 | 0.00 | 0.79 | 0.79 | 79 | 1011.6 |
| 20260903163732 | 23 | 141 | 11.3 | 22.5 | 0.00 | 0.79 | 0.79 | 80 | 1011.6 |
| 20260903163612 | 23 | 153 | 11.3 | 24.1 | 0.00 | 0.79 | 0.79 | 79 | 1011.7 |
| 20260903163535 | 23 | 196 | 11.3 | 17.7 | 0.00 | 0.79 | 0.79 | 79 | 1011.7 |
| 20260903163337 | 23 | 161 | 9.7 | 17.7 | 0.00 | 0.79 | 0.79 | 80 | 1011.7 |
| 20260903163258 | 23 | 159 | 11.3 | 17.7 | 0.00 | 0.79 | 0.79 | 81 | 1011.8 |
| 20260903163146 | 23 | 186 | 11.3 | 17.7 | 0.00 | 0.79 | 0.79 | 81 | 1011.8 |
| 20260903163106 | 23 | 171 | 9.7 | 16.1 | 0.00 | 0.79 | 0.79 | 81 | 1011.8 |
| 20260903162950 | 23 | 161 | 6.4 | 12.9 | 0.00 | 0.79 | 0.79 | 81 | 1011.8 |
| 20260903162830 | 23 | 195 | 6.4 | 11.3 | 0.00 | 0.79 | 0.79 | 81 | 1011.8 |
| 20260903162753 | 23 | 213 | 6.4 | 11.3 | 0.00 | 0.79 | 0.79 | 81 | 1011.8 |
| 20260903162708 | 23 | 159 | 4.8 | 11.3 | 0.00 | 0.79 | 0.79 | 82 | 1011.8 |
| 20260903162640 | 23 | 142 | 4.8 | 11.3 | 0.00 | 0.79 | 0.79 | 81 | 1011.8 |
| 20260903162511 | 23 | 203 | 6.4 | 12.9 | 0.00 | 0.79 | 0.79 | 82 | 1011.9 |
| 20260903162425 | 23 | 186 | 6.4 | 12.9 | 0.00 | 0.79 | 0.79 | 82 | 1011.9 |
| 20260903162236 | 23 | 136 | 6.4 | 12.9 | 0.00 | 0.79 | 0.79 | 83 | 1011.9 |
| 20260903162151 | 23 | 136 | 6.4 | 14.5 | 0.00 | 0.79 | 0.79 | 82 | 1011.8 |
| 20260903162003 | 23 | 131 | 6.4 | 14.5 | 0.00 | 0.79 | 0.79 | 81 | 1011.9 |
| 20260903161925 | 23 | 188 | 6.4 | 14.5 | 0.00 | 0.79 | 0.79 | 81 | 1011.9 |
| 20260903161729 | 23 | 157 | 6.4 | 14.5 | 0.00 | 0.79 | 0.79 | 81 | 1012.0 |
| 20260903161651 | 23 | 215 | 4.8 | 14.5 | 0.00 | 0.79 | 0.79 | 81 | 1012.0 |
| 20260903161537 | 23 | 200 | 6.4 | 16.1 | 0.00 | 0.79 | 0.79 | 81 | 1012.0 |
| 20260903161457 | 23 | 178 | 9.7 | 16.1 | 0.00 | 0.79 | 0.79 | 81 | 1012.0 |
| 20260903161359 | 23 | 144 | 9.7 | 16.1 | 0.00 | 0.79 | 0.79 | 81 | 1012.0 |
| 20260903161303 | 23 | 160 | 9.7 | 16.1 | 0.00 | 0.79 | 0.79 | 81 | 1011.9 |
| 20260903161225 | 23 | 236 | 9.7 | 16.1 | 0.00 | 0.79 | 0.79 | 80 | 1011.9 |
| 20260903161054 | 23 | 195 | 8.0 | 16.1 | 0.00 | 0.79 | 0.79 | 80 | 1011.9 |
| 20260903160933 | 23 | 137 | 6.4 | 17.7 | 0.00 | 0.79 | 0.79 | 81 | 1012.0 |
| 20260903160855 | 23 | 144 | 8.0 | 17.7 | 0.00 | 0.79 | 0.79 | 80 | 1012.0 |
| 20260903160758 | 23 | 232 | 9.7 | 17.7 | 0.00 | 0.79 | 0.79 | 81 | 1011.9 |
| 20260903160720 | 23 | 198 | 9.7 | 17.7 | 0.00 | 0.79 | 0.79 | 80 | 1011.9 |
| 20260903160523 | 23 | 132 | 8.0 | 17.7 | 0.00 | 0.79 | 0.79 | 81 | 1012.0 |
| 20260903160423 | 23 | 153 | 9.7 | 17.7 | 0.00 | 0.79 | 0.79 | 81 | 1012.0 |
| 20260903160329 | 23 | 163 | 11.3 | 17.7 | 0.00 | 0.79 | 0.79 | 80 | 1012.0 |
| 20260903160250 | 23 | 168 | 11.3 | 17.7 | 0.00 | 0.79 | 0.79 | 82 | 1012.0 |
| 20260903160120 | 23 | 180 | 9.7 | 17.7 | 0.00 | 0.79 | 0.79 | 81 | 1012.0 |
| 20260903160033 | 23 | 100 | 9.7 | 16.1 | 0.00 | 0.79 | 0.79 | 81 | 1012.0 |
| 20260903155903 | 23 | 150 | 12.9 | 16.1 | 0.00 | 0.79 | 0.79 | 81 | 1012.0 |
| 20260903155828 | 23 | 222 | 11.3 | 19.3 | 0.00 | 0.79 | 0.79 | 81 | 1012.0 |
| 20260903155633 | 23 | 177 | 8.0 | 19.3 | 0.00 | 0.79 | 0.79 | 81 | 1012.1 |
| 20260903155534 | 23 | 172 | 9.7 | 19.3 | 0.00 | 0.79 | 0.79 | 80 | 1012.0 |
| 20260903155438 | 23 | 188 | 11.3 | 19.3 | 0.00 | 0.79 | 0.79 | 80 | 1012.1 |
| 20260903155340 | 23 | 215 | 9.7 | 19.3 | 0.00 | 0.79 | 0.79 | 80 | 1012.1 |
| 20260903155243 | 23 | 175 | 8.0 | 19.3 | 0.00 | 0.79 | 0.79 | 80 | 1012.1 |
| 20260903155204 | 23 | 167 | 9.7 | 19.3 | 0.00 | 0.79 | 0.79 | 80 | 1012.1 |
| 20260903155125 | 23 | 202 | 11.3 | 19.3 | 0.00 | 0.79 | 0.79 | 80 | 1012.1 |
| 20260903155009 | 23 | 223 | 9.7 | 19.3 | 0.00 | 0.79 | 0.79 | 80 | 1012.1 |
| 20260903154931 | 23 | 172 | 9.7 | 17.7 | 0.00 | 0.79 | 0.79 | 80 | 1012.1 |
| 20260903154806 | 23 | 196 | 12.9 | 19.3 | 0.00 | 0.79 | 0.79 | 78 | 1012.1 |
| 20260903154720 | 23 | 171 | 11.3 | 22.5 | 0.00 | 0.79 | 0.79 | 79 | 1012.1 |
| 20260903154550 | 23 | 182 | 9.7 | 22.5 | 0.00 | 0.79 | 0.79 | 79 | 1012.1 |
| 20260903154450 | 23 | 183 | 9.7 | 22.5 | 0.00 | 0.79 | 0.79 | 79 | 1012.1 |
| 20260903154413 | 23 | 163 | 8.0 | 22.5 | 0.00 | 0.79 | 0.79 | 80 | 1012.1 |
| 20260903154316 | 23 | 150 | 8.0 | 22.5 | 0.00 | 0.79 | 0.79 | 80 | 1012.1 |
| 20260903154237 | 23 | 180 | 8.0 | 22.5 | 0.00 | 0.79 | 0.79 | 78 | 1012.0 |
| 20260903154046 | 23 | 186 | 9.7 | 22.5 | 0.00 | 0.79 | 0.79 | 79 | 1012.1 |
| 20260903153941 | 23 | 173 | 14.5 | 22.5 | 0.00 | 0.79 | 0.79 | 78 | 1012.1 |
| 20260903153824 | 23 | 217 | 11.3 | 22.5 | 0.00 | 0.79 | 0.79 | 78 | 1012.1 |
| 20260903153745 | 23 | 196 | 9.7 | 20.9 | 0.00 | 0.79 | 0.79 | 80 | 1012.1 |
| 20260903153712 | 23 | 197 | 9.7 | 20.9 | 0.00 | 0.79 | 0.79 | 80 | 1012.1 |
| 20260903153614 | 23 | 169 | 8.0 | 20.9 | 0.00 | 0.79 | 0.79 | 81 | 1012.1 |
| 20260903153536 | 23 | 221 | 9.7 | 20.9 | 0.00 | 0.79 | 0.79 | 81 | 1012.2 |
| 20260903153344 | 23 | 153 | 14.5 | 20.9 | 0.00 | 0.79 | 0.79 | 79 | 1012.1 |
| 20260903153258 | 23 | 223 | 14.5 | 20.9 | 0.00 | 0.79 | 0.79 | 79 | 1012.1 |
| 20260903153130 | 23 | 217 | 11.3 | 17.7 | 0.00 | 0.79 | 0.79 | 79 | 1012.2 |
| 20260903153030 | 23 | 178 | 9.7 | 16.1 | 0.00 | 0.79 | 0.79 | 80 | 1012.2 |
| 20260903152901 | 23 | 212 | 11.3 | 17.7 | 0.00 | 0.79 | 0.79 | 79 | 1012.2 |
| 20260903152734 | 23 | 188 | 8.0 | 17.7 | 0.00 | 0.79 | 0.79 | 80 | 1012.1 |
| 20260903152628 | 23 | 178 | 9.7 | 16.1 | 0.00 | 0.79 | 0.79 | 80 | 1012.2 |
| 20260903152533 | 23 | 183 | 9.7 | 16.1 | 0.00 | 0.79 | 0.79 | 80 | 1012.2 |
| 20260903152446 | 23 | 184 | 8.0 | 16.1 | 0.00 | 0.79 | 0.79 | 80 | 1012.2 |
| 20260903152407 | 23 | 178 | 8.0 | 16.1 | 0.00 | 0.79 | 0.79 | 81 | 1012.2 |
| 20260903152309 | 23 | 200 | 9.7 | 19.3 | 0.00 | 0.79 | 0.79 | 81 | 1012.2 |
| 20260903152212 | 23 | 200 | 9.7 | 19.3 | 0.00 | 0.79 | 0.79 | 81 | 1012.3 |
| 20260903152114 | 23 | 142 | 9.7 | 19.3 | 0.00 | 0.79 | 0.79 | 81 | 1012.2 |
| 20260903151943 | 23 | 202 | 11.3 | 19.3 | 0.00 | 0.79 | 0.79 | 80 | 1012.3 |
| 20260903151857 | 23 | 141 | 8.0 | 19.3 | 0.00 | 0.79 | 0.79 | 81 | 1012.4 |
| 20260903151715 | 23 | 199 | 6.4 | 19.3 | 0.00 | 0.79 | 0.79 | 83 | 1012.4 |
| 20260903151615 | 23 | 182 | 8.0 | 19.3 | 0.00 | 0.79 | 0.79 | 83 | 1012.5 |
| 20260903151438 | 22 | 223 | 8.0 | 17.7 | 0.00 | 0.79 | 0.79 | 83 | 1012.5 |
| 20260903151340 | 22 | 157 | 8.0 | 17.7 | 0.00 | 0.79 | 0.79 | 83 | 1012.5 |
| 20260903151229 | 22 | 159 | 8.0 | 17.7 | 0.00 | 0.79 | 0.79 | 84 | 1012.4 |
| 20260903151150 | 22 | 142 | 9.7 | 17.7 | 0.00 | 0.79 | 0.79 | 84 | 1012.5 |
| 20260903151112 | 22 | 154 | 8.0 | 17.7 | 0.00 | 0.79 | 0.79 | 84 | 1012.5 |
| 20260903151017 | 22 | 185 | 9.7 | 17.7 | 0.00 | 0.79 | 0.79 | 84 | 1012.4 |
| 20260903150939 | 22 | 173 | 9.7 | 17.7 | 0.00 | 0.79 | 0.79 | 83 | 1012.4 |
| 20260903150819 | 22 | 157 | 8.0 | 19.3 | 0.00 | 0.79 | 0.79 | 84 | 1012.5 |
| 20260903150733 | 22 | 202 | 9.7 | 19.3 | 0.00 | 0.79 | 0.79 | 83 | 1012.5 |
| 20260903150517 | 22 | 240 | 9.7 | 19.3 | 0.00 | 0.79 | 0.79 | 84 | 1012.5 |
| 20260903150428 | 22 | 206 | 12.9 | 19.3 | 0.00 | 0.79 | 0.79 | 84 | 1012.5 |
| 20260903150336 | 22 | 197 | 12.9 | 19.3 | 0.00 | 0.79 | 0.79 | 84 | 1012.6 |
| 20260903150258 | 22 | 228 | 12.9 | 19.3 | 0.00 | 0.79 | 0.79 | 84 | 1012.6 |
| 20260903150107 | 21 | 167 | 9.7 | 19.3 | 0.00 | 0.79 | 0.79 | 84 | 1012.7 |
| 20260903150021 | 21 | 215 | 9.7 | 19.3 | 0.00 | 0.79 | 0.79 | 85 | 1012.7 |
| 20260903145851 | 21 | 178 | 8.0 | 22.5 | 0.00 | 0.79 | 0.79 | 85 | 1012.7 |
| 20260903145753 | 21 | 221 | 6.4 | 22.5 | 0.00 | 0.79 | 0.79 | 85 | 1012.7 |
| 20260903145657 | 21 | 135 | 8.0 | 22.5 | 0.00 | 0.79 | 0.79 | 85 | 1012.7 |
| 20260903145616 | 21 | 211 | 6.4 | 22.5 | 0.00 | 0.79 | 0.79 | 85 | 1012.7 |
| 20260903145428 | 21 | 221 | 4.8 | 22.5 | 0.00 | 0.79 | 0.79 | 84 | 1012.7 |
| 20260903145342 | 21 | 207 | 6.4 | 22.5 | 0.00 | 0.79 | 0.79 | 85 | 1012.6 |
| 20260903145122 | 21 | 200 | 12.9 | 17.7 | 0.00 | 0.79 | 0.79 | 84 | 1012.7 |
| 20260903145021 | 21 | 175 | 9.7 | 19.3 | 0.00 | 0.79 | 0.79 | 85 | 1012.7 |
| 20260903144909 | 21 | 145 | 9.7 | 19.3 | 0.00 | 0.79 | 0.79 | 85 | 1012.7 |
| 20260903144830 | 21 | 173 | 9.7 | 16.1 | 0.00 | 0.79 | 0.79 | 85 | 1012.7 |
| 20260903144700 | 21 | 194 | 8.0 | 16.1 | 0.00 | 0.79 | 0.79 | 86 | 1012.7 |
| 20260903144616 | 21 | 193 | 8.0 | 16.1 | 0.00 | 0.79 | 0.79 | 85 | 1012.7 |
| 20260903144424 | 21 | 148 | 8.0 | 16.1 | 0.00 | 0.79 | 0.79 | 86 | 1012.7 |
| 20260903144338 | 21 | 198 | 9.7 | 16.1 | 0.00 | 0.79 | 0.79 | 86 | 1012.7 |
| 20260903144208 | 21 | 160 | 9.7 | 17.7 | 0.00 | 0.79 | 0.79 | 85 | 1012.7 |
| 20260903144129 | 21 | 198 | 9.7 | 19.3 | 0.00 | 0.79 | 0.79 | 86 | 1012.7 |
| 20260903144011 | 21 | 171 | 8.0 | 17.7 | 0.00 | 0.79 | 0.79 | 85 | 1012.8 |
| 20260903143932 | 21 | 166 | 9.7 | 17.7 | 0.00 | 0.79 | 0.79 | 85 | 1012.8 |
| 20260903143804 | 21 | 125 | 6.4 | 17.7 | 0.00 | 0.79 | 0.79 | 86 | 1012.7 |
| 20260903143719 | 21 | 215 | 4.8 | 17.7 | 0.00 | 0.79 | 0.79 | 86 | 1012.8 |
| 20260903143552 | 21 | 201 | 9.7 | 20.9 | 0.00 | 0.79 | 0.79 | 86 | 1012.8 |
| 20260903143452 | 21 | 155 | 11.3 | 20.9 | 0.00 | 0.79 | 0.79 | 86 | 1012.8 |
| 20260903143413 | 21 | 180 | 9.7 | 20.9 | 0.00 | 0.79 | 0.79 | 86 | 1012.8 |
| 20260903143317 | 21 | 183 | 9.7 | 20.9 | 0.00 | 0.79 | 0.79 | 86 | 1012.8 |
| 20260903143238 | 21 | 209 | 8.0 | 20.9 | 0.00 | 0.79 | 0.79 | 86 | 1012.8 |
| 20260903143108 | 21 | 198 | 9.7 | 20.9 | 0.00 | 0.79 | 0.79 | 86 | 1012.8 |
| 20260903143021 | 21 | 227 | 11.3 | 20.9 | 0.00 | 0.79 | 0.79 | 86 | 1012.8 |
| 20260903142852 | 21 | 121 | 14.5 | 20.9 | 0.00 | 0.79 | 0.79 | 86 | 1012.9 |
| 20260903142814 | 21 | 140 | 14.5 | 20.9 | 0.00 | 0.79 | 0.79 | 86 | 1013.0 |
| 20260903142638 | 21 | 225 | 11.3 | 20.9 | 0.00 | 0.79 | 0.79 | 86 | 1012.9 |
| 20260903142540 | 21 | 152 | 9.7 | 20.9 | 0.00 | 0.79 | 0.79 | 86 | 1013.0 |
| 20260903142443 | 21 | 215 | 9.7 | 20.9 | 0.00 | 0.79 | 0.79 | 86 | 1013.0 |
| 20260903142328 | 21 | 229 | 8.0 | 22.5 | 0.00 | 0.79 | 0.79 | 86 | 1012.9 |
| 20260903142230 | 21 | 250 | 8.0 | 22.5 | 0.00 | 0.79 | 0.79 | 86 | 1012.9 |
| 20260903142131 | 21 | 200 | 9.7 | 22.5 | 0.00 | 0.79 | 0.79 | 86 | 1012.9 |
| 20260903142055 | 21 | 214 | 11.3 | 22.5 | 0.00 | 0.79 | 0.79 | 86 | 1012.9 |
| 20260903141920 | 21 | 227 | 9.7 | 22.5 | 0.00 | 0.79 | 0.79 | 86 | 1012.9 |
| 20260903141823 | 21 | 161 | 8.0 | 22.5 | 0.00 | 0.79 | 0.79 | 86 | 1013.0 |
| 20260903141725 | 21 | 151 | 11.3 | 22.5 | 0.00 | 0.79 | 0.79 | 86 | 1013.0 |
| 20260903141645 | 21 | 155 | 14.5 | 22.5 | 0.00 | 0.79 | 0.79 | 86 | 1013.0 |
| 20260903141439 | 21 | 140 | 8.0 | 22.5 | 0.00 | 0.79 | 0.79 | 87 | 1012.9 |
| 20260903141335 | 21 | 175 | 9.7 | 20.9 | 0.00 | 0.79 | 0.79 | 86 | 1012.9 |
| 20260903141255 | 21 | 205 | 11.3 | 20.9 | 0.00 | 0.79 | 0.79 | 86 | 1013.0 |
| 20260903141140 | 21 | 201 | 12.9 | 20.9 | 0.00 | 0.79 | 0.79 | 86 | 1013.0 |
| 20260903141102 | 21 | 197 | 11.3 | 20.9 | 0.00 | 0.79 | 0.79 | 86 | 1013.0 |
| 20260903140945 | 21 | 173 | 12.9 | 24.1 | 0.00 | 0.79 | 0.79 | 86 | 1013.0 |
| 20260903140905 | 21 | 174 | 12.9 | 19.3 | 0.00 | 0.79 | 0.79 | 86 | 1013.0 |
| 20260903140735 | 21 | 157 | 9.7 | 19.3 | 0.00 | 0.79 | 0.79 | 86 | 1013.1 |
| 20260903140628 | 21 | 200 | 8.0 | 19.3 | 0.00 | 0.79 | 0.79 | 86 | 1013.1 |
| 20260903140443 | 21 | 227 | 8.0 | 19.3 | 0.00 | 0.79 | 0.79 | 86 | 1013.1 |
| 20260903140357 | 21 | 158 | 11.3 | 19.3 | 0.00 | 0.79 | 0.79 | 86 | 1013.0 |
| 20260903140227 | 21 | 177 | 12.9 | 19.3 | 0.00 | 0.79 | 0.79 | 86 | 1013.0 |
| 20260903140127 | 21 | 157 | 11.3 | 20.9 | 0.00 | 0.79 | 0.79 | 86 | 1013.0 |
| 20260903135959 | 21 | 194 | 9.7 | 16.1 | 0.00 | 0.79 | 0.79 | 86 | 1013.0 |
| 20260903135914 | 21 | 272 | 9.7 | 16.1 | 0.00 | 0.79 | 0.79 | 86 | 1013.0 |
| 20260903135724 | 21 | 209 | 9.7 | 17.7 | 0.00 | 0.79 | 0.79 | 86 | 1012.9 |
| 20260903135639 | 21 | 225 | 6.4 | 17.7 | 0.00 | 0.79 | 0.79 | 87 | 1012.9 |
| 20260903135508 | 21 | 190 | 4.8 | 17.7 | 0.00 | 0.79 | 0.79 | 87 | 1012.9 |
| 20260903135430 | 21 | 184 | 6.4 | 17.7 | 0.00 | 0.79 | 0.79 | 86 | 1012.9 |
| 20260903135236 | 21 | 160 | 9.7 | 16.1 | 0.00 | 0.79 | 0.79 | 87 | 1012.9 |
| 20260903135201 | 21 | 195 | 11.3 | 19.3 | 0.00 | 0.79 | 0.79 | 86 | 1012.8 |
| 20260903135106 | 21 | 192 | 9.7 | 16.1 | 0.00 | 0.79 | 0.79 | 87 | 1012.9 |
| 20260903135028 | 21 | 229 | 9.7 | 16.1 | 0.00 | 0.79 | 0.79 | 86 | 1012.9 |
| 20260903134808 | 21 | 180 | 8.0 | 20.9 | 0.00 | 0.79 | 0.79 | 86 | 1012.9 |
| 20260903134722 | 21 | 235 | 8.0 | 20.9 | 0.00 | 0.79 | 0.79 | 86 | 1012.9 |
| 20260903134552 | 21 | 178 | 9.7 | 25.7 | 0.00 | 0.79 | 0.79 | 86 | 1012.9 |
| 20260903134513 | 21 | 160 | 9.7 | 25.7 | 0.00 | 0.79 | 0.79 | 86 | 1012.9 |
| 20260903134414 | 21 | 146 | 11.3 | 25.7 | 0.00 | 0.79 | 0.79 | 86 | 1012.8 |
| 20260903134318 | 21 | 207 | 11.3 | 25.7 | 0.00 | 0.79 | 0.79 | 86 | 1012.9 |
| 20260903134219 | 21 | 186 | 12.9 | 25.7 | 0.00 | 0.79 | 0.79 | 86 | 1012.8 |
| 20260903134049 | 21 | 204 | 14.5 | 25.7 | 0.00 | 0.79 | 0.79 | 86 | 1012.8 |
| 20260903134003 | 21 | 191 | 14.5 | 25.7 | 0.00 | 0.79 | 0.79 | 85 | 1012.7 |
| 20260903133834 | 21 | 190 | 11.3 | 24.1 | 0.00 | 0.79 | 0.79 | 86 | 1012.7 |
| 20260903133738 | 21 | 163 | 9.7 | 24.1 | 0.00 | 0.79 | 0.79 | 86 | 1012.7 |
| 20260903133542 | 21 | 182 | 12.9 | 24.1 | 0.00 | 0.79 | 0.79 | 87 | 1012.7 |
| 20260903133503 | 21 | 174 | 12.9 | 24.1 | 0.00 | 0.79 | 0.79 | 87 | 1012.7 |
| 20260903133408 | 21 | 215 | 11.3 | 22.5 | 0.00 | 0.79 | 0.79 | 88 | 1012.6 |
| 20260903133328 | 20 | 183 | 11.3 | 22.5 | 0.00 | 0.79 | 0.79 | 89 | 1012.6 |
| 20260903133140 | 20 | 213 | 14.5 | 22.5 | 0.00 | 0.79 | 0.79 | 88 | 1012.6 |
| 20260903133031 | 20 | 189 | 12.9 | 22.5 | 0.00 | 0.79 | 0.79 | 88 | 1012.7 |
| 20260903132954 | 20 | 176 | 9.7 | 24.1 | 0.00 | 0.79 | 0.79 | 88 | 1012.7 |
| 20260903132857 | 20 | 204 | 9.7 | 19.3 | 0.00 | 0.79 | 0.79 | 88 | 1012.7 |
| 20260903132820 | 20 | 183 | 11.3 | 19.3 | 0.00 | 0.79 | 0.79 | 88 | 1012.7 |
| 20260903132626 | 20 | 233 | 12.9 | 19.3 | 0.00 | 0.79 | 0.79 | 88 | 1012.8 |
| 20260903132528 | 20 | 157 | 12.9 | 17.7 | 0.00 | 0.79 | 0.79 | 88 | 1012.8 |
| 20260903132434 | 20 | 214 | 11.3 | 17.7 | 0.00 | 0.79 | 0.79 | 88 | 1012.8 |
| 20260903132355 | 20 | 212 | 11.3 | 17.7 | 0.00 | 0.79 | 0.79 | 89 | 1012.8 |
| 20260903132226 | 20 | 188 | 9.7 | 16.1 | 0.00 | 0.79 | 0.79 | 89 | 1012.7 |
| 20260903132119 | 20 | 202 | 4.8 | 16.1 | 0.00 | 0.79 | 0.79 | 89 | 1012.7 |
| 20260903131950 | 20 | 238 | 0.0 | 17.7 | 0.00 | 0.79 | 0.79 | 89 | 1012.8 |
| 20260903131850 | 20 | 238 | 0.0 | 17.7 | 0.00 | 0.79 | 0.79 | 89 | 1012.8 |
| 20260903131753 | 20 | 202 | 0.0 | 17.7 | 0.00 | 0.79 | 0.79 | 89 | 1012.8 |
| 20260903131654 | 20 | 184 | 1.6 | 17.7 | 0.00 | 0.79 | 0.79 | 89 | 1012.8 |
| 20260903131445 | 20 | 174 | 6.4 | 17.7 | 0.00 | 0.79 | 0.79 | 89 | 1012.7 |
| 20260903131341 | 20 | 167 | 8.0 | 17.7 | 0.00 | 0.79 | 0.79 | 89 | 1012.7 |
| 20260903131304 | 20 | 193 | 9.7 | 17.7 | 0.00 | 0.79 | 0.79 | 89 | 1012.7 |
| 20260903131207 | 20 | 174 | 9.7 | 17.7 | 0.00 | 0.79 | 0.79 | 89 | 1012.8 |
| 20260903131129 | 20 | 187 | 9.7 | 17.7 | 0.00 | 0.79 | 0.79 | 89 | 1012.8 |
| 20260903130959 | 20 | 140 | 8.0 | 17.7 | 0.00 | 0.79 | 0.79 | 89 | 1012.7 |
| 20260903130914 | 20 | 142 | 6.4 | 16.1 | 0.00 | 0.79 | 0.79 | 89 | 1012.7 |
| 20260903130754 | 20 | 175 | 9.7 | 16.1 | 0.00 | 0.79 | 0.79 | 89 | 1012.8 |
| 20260903130715 | 20 | 189 | 9.7 | 16.1 | 0.00 | 0.79 | 0.79 | 89 | 1012.8 |
| 20260903130540 | 20 | 207 | 11.3 | 16.1 | 0.00 | 0.79 | 0.79 | 89 | 1012.8 |
| 20260903130440 | 20 | 159 | 11.3 | 19.3 | 0.00 | 0.79 | 0.79 | 88 | 1012.9 |
| 20260903130326 | 20 | 182 | 9.7 | 19.3 | 0.00 | 0.79 | 0.79 | 89 | 1012.8 |
| 20260903130249 | 20 | 180 | 9.7 | 19.3 | 0.00 | 0.79 | 0.79 | 89 | 1012.9 |
| 20260903130211 | 20 | 206 | 9.7 | 19.3 | 0.00 | 0.79 | 0.79 | 89 | 1012.9 |
| 20260903130054 | 20 | 208 | 4.8 | 19.3 | 0.00 | 0.79 | 0.79 | 89 | 1012.9 |
| 20260903130014 | 20 | 200 | 3.2 | 19.3 | 0.00 | 0.79 | 0.79 | 89 | 1013.0 |
| 20260903125935 | 20 | 204 | 4.8 | 25.7 | 0.00 | 0.79 | 0.79 | 89 | 1013.0 |
| 20260903125820 | 20 | 146 | 8.0 | 25.7 | 0.00 | 0.79 | 0.79 | 89 | 1012.9 |
| 20260903125742 | 20 | 186 | 12.9 | 25.7 | 0.00 | 0.79 | 0.79 | 89 | 1012.9 |
| 20260903125611 | 20 | 211 | 11.3 | 25.7 | 0.00 | 0.79 | 0.79 | 88 | 1012.7 |
| 20260903125527 | 20 | 215 | 9.7 | 27.4 | 0.00 | 0.79 | 0.79 | 89 | 1012.7 |
| 20260903125359 | 20 | 208 | 11.3 | 27.4 | 0.00 | 0.79 | 0.79 | 88 | 1012.7 |
| 20260903125321 | 20 | 207 | 9.7 | 27.4 | 0.00 | 0.79 | 0.79 | 88 | 1012.7 |
| 20260903125131 | 20 | 213 | 14.5 | 27.4 | 0.00 | 0.79 | 0.79 | 88 | 1012.8 |
| 20260903125032 | 20 | 192 | 14.5 | 27.4 | 0.00 | 0.79 | 0.79 | 88 | 1012.8 |
| 20260903124935 | 20 | 223 | 12.9 | 27.4 | 0.00 | 0.79 | 0.79 | 88 | 1012.8 |
| 20260903124856 | 20 | 175 | 16.1 | 27.4 | 0.00 | 0.79 | 0.79 | 88 | 1012.9 |
| 20260903124616 | 20 | 178 | 9.7 | 17.7 | 0.00 | 0.79 | 0.79 | 88 | 1012.9 |
| 20260903124531 | 20 | 155 | 9.7 | 17.7 | 0.00 | 0.79 | 0.79 | 89 | 1012.9 |
| 20260903124341 | 20 | 175 | 11.3 | 17.7 | 0.00 | 0.79 | 0.79 | 88 | 1012.9 |
| 20260903124237 | 20 | 188 | 9.7 | 17.7 | 0.00 | 0.79 | 0.79 | 88 | 1013.0 |
| 20260903124125 | 20 | 159 | 9.7 | 17.7 | 0.00 | 0.79 | 0.79 | 88 | 1013.0 |
| 20260903124046 | 20 | 235 | 11.3 | 17.7 | 0.00 | 0.79 | 0.79 | 88 | 1013.0 |
| 20260903124009 | 20 | 169 | 9.7 | 17.7 | 0.00 | 0.79 | 0.79 | 88 | 1013.1 |
| 20260903123913 | 20 | 182 | 9.7 | 19.3 | 0.00 | 0.79 | 0.79 | 88 | 1013.1 |
| 20260903123834 | 20 | 166 | 11.3 | 19.3 | 0.00 | 0.79 | 0.79 | 88 | 1013.1 |
| 20260903123704 | 20 | 196 | 11.3 | 19.3 | 0.00 | 0.79 | 0.79 | 88 | 1013.1 |
| 20260903123606 | 20 | 186 | 11.3 | 19.3 | 0.00 | 0.79 | 0.79 | 88 | 1013.2 |
| 20260903123448 | 20 | 187 | 8.0 | 19.3 | 0.00 | 0.79 | 0.79 | 88 | 1013.2 |
| 20260903123410 | 20 | 175 | 8.0 | 19.3 | 0.00 | 0.79 | 0.79 | 88 | 1013.2 |
| 20260903123239 | 20 | 143 | 9.7 | 19.3 | 0.00 | 0.79 | 0.79 | 88 | 1013.3 |
| 20260903123133 | 20 | 170 | 9.7 | 19.3 | 0.00 | 0.79 | 0.79 | 88 | 1013.3 |
| 20260903122943 | 20 | 189 | 8.0 | 20.9 | 0.00 | 0.79 | 0.79 | 89 | 1013.2 |
| 20260903122842 | 20 | 209 | 9.7 | 20.9 | 0.00 | 0.79 | 0.79 | 88 | 1013.3 |
| 20260903122701 | 20 | 217 | 6.4 | 20.9 | 0.00 | 0.79 | 0.79 | 89 | 1013.3 |
| 20260903122534 | 20 | 147 | 6.4 | 20.9 | 0.00 | 0.79 | 0.79 | 88 | 1013.3 |
| 20260903122437 | 20 | 189 | 6.4 | 20.9 | 0.00 | 0.79 | 0.79 | 89 | 1013.3 |
| 20260903122403 | 20 | 167 | 8.0 | 20.9 | 0.00 | 0.79 | 0.79 | 88 | 1013.3 |
| 20260903122324 | 20 | 152 | 11.3 | 20.9 | 0.00 | 0.79 | 0.79 | 88 | 1013.3 |
| 20260903122127 | 20 | 188 | 8.0 | 20.9 | 0.00 | 0.79 | 0.79 | 89 | 1013.3 |
| 20260903122028 | 20 | 136 | 9.7 | 17.7 | 0.00 | 0.79 | 0.79 | 89 | 1013.3 |
| 20260903121933 | 20 | 169 | 11.3 | 17.7 | 0.00 | 0.79 | 0.79 | 89 | 1013.3 |
| 20260903121839 | 20 | 193 | 11.3 | 17.7 | 0.00 | 0.79 | 0.79 | 88 | 1013.2 |
| 20260903121759 | 20 | 168 | 9.7 | 19.3 | 0.00 | 0.79 | 0.79 | 88 | 1013.3 |
| 20260903121703 | 20 | 166 | 9.7 | 17.7 | 0.00 | 0.79 | 0.79 | 88 | 1013.3 |
| 20260903121543 | 20 | 173 | 9.7 | 19.3 | 0.00 | 0.79 | 0.79 | 89 | 1013.2 |
| 20260903121437 | 20 | 175 | 6.4 | 16.1 | 0.00 | 0.79 | 0.79 | 88 | 1013.2 |
| 20260903121332 | 20 | 144 | 8.0 | 16.1 | 0.00 | 0.79 | 0.79 | 88 | 1013.2 |
| 20260903121233 | 20 | 161 | 9.7 | 16.1 | 0.00 | 0.79 | 0.79 | 88 | 1013.2 |
| 20260903121122 | 20 | 187 | 11.3 | 16.1 | 0.00 | 0.79 | 0.79 | 88 | 1013.2 |
| 20260903121019 | 20 | 154 | 11.3 | 17.7 | 0.00 | 0.79 | 0.79 | 88 | 1013.2 |
| 20260903120927 | 20 | 189 | 11.3 | 17.7 | 0.00 | 0.79 | 0.79 | 88 | 1013.2 |
| 20260903120858 | 20 | 173 | 9.7 | 16.1 | 0.00 | 0.79 | 0.79 | 88 | 1013.2 |
| 20260903120729 | 20 | 165 | 9.7 | 17.7 | 0.00 | 0.79 | 0.79 | 88 | 1013.1 |
| 20260903120623 | 20 | 181 | 8.0 | 17.7 | 0.00 | 0.79 | 0.79 | 89 | 1013.1 |
| 20260903120433 | 20 | 193 | 9.7 | 17.7 | 0.00 | 0.79 | 0.79 | 88 | 1013.2 |
| 20260903120348 | 20 | 202 | 9.7 | 17.7 | 0.00 | 0.79 | 0.79 | 89 | 1013.2 |
| 20260903120217 | 20 | 165 | 11.3 | 17.7 | 0.00 | 0.79 | 0.79 | 88 | 1013.1 |
| 20260903120122 | 20 | 224 | 11.3 | 17.7 | 0.00 | 0.79 | 0.79 | 88 | 1013.1 |
| 20260903115925 | 20 | 173 | 9.7 | 17.7 | 0.00 | 0.79 | 0.79 | 88 | 1013.1 |
| 20260903115829 | 20 | 178 | 6.4 | 16.1 | 0.00 | 0.79 | 0.79 | 89 | 1013.0 |
| 20260903115730 | 20 | 163 | 6.4 | 16.1 | 0.00 | 0.79 | 0.79 | 89 | 1013.0 |
| 20260903115653 | 20 | 168 | 8.0 | 16.1 | 0.00 | 0.79 | 0.79 | 89 | 1013.0 |
| 20260903115613 | 20 | 202 | 6.4 | 16.1 | 0.00 | 0.79 | 0.79 | 89 | 1013.1 |
| 20260903115517 | 20 | 208 | 6.4 | 16.1 | 0.00 | 0.79 | 0.79 | 89 | 1013.1 |
| 20260903115437 | 20 | 172 | 8.0 | 16.1 | 0.00 | 0.79 | 0.79 | 89 | 1013.1 |
| 20260903115310 | 20 | 191 | 8.0 | 16.1 | 0.00 | 0.79 | 0.79 | 89 | 1013.0 |
| 20260903115226 | 20 | 196 | 11.3 | 16.1 | 0.00 | 0.79 | 0.79 | 89 | 1013.0 |
| 20260903115057 | 20 | 146 | 9.7 | 17.7 | 0.00 | 0.79 | 0.79 | 89 | 1013.1 |
| 20260903115022 | 20 | 170 | 9.7 | 16.1 | 0.00 | 0.79 | 0.79 | 89 | 1013.1 |
| 20260903114828 | 19 | 173 | 8.0 | 16.1 | 0.00 | 0.79 | 0.79 | 89 | 1013.1 |
| 20260903114730 | 19 | 142 | 6.4 | 16.1 | 0.00 | 0.79 | 0.79 | 89 | 1013.1 |
| 20260903114633 | 19 | 217 | 8.0 | 16.1 | 0.00 | 0.79 | 0.79 | 89 | 1013.2 |
| 20260903114554 | 19 | 188 | 9.7 | 16.1 | 0.00 | 0.79 | 0.79 | 89 | 1013.2 |
| 20260903114402 | 19 | 218 | 9.7 | 16.1 | 0.00 | 0.79 | 0.79 | 89 | 1013.1 |
| 20260903114254 | 19 | 146 | 9.7 | 16.1 | 0.00 | 0.79 | 0.79 | 89 | 1013.2 |
| 20260903114044 | 19 | 182 | 8.0 | 19.3 | 0.00 | 0.79 | 0.79 | 90 | 1013.1 |
| 20260903113937 | 19 | 199 | 8.0 | 19.3 | 0.00 | 0.79 | 0.79 | 89 | 1013.1 |
| 20260903113808 | 19 | 187 | 8.0 | 19.3 | 0.00 | 0.79 | 0.79 | 90 | 1013.1 |
| 20260903113733 | 19 | 184 | 6.4 | 19.3 | 0.00 | 0.79 | 0.79 | 90 | 1013.1 |
| 20260903113536 | 19 | 182 | 9.7 | 19.3 | 0.00 | 0.79 | 0.79 | 90 | 1013.1 |
| 20260903113458 | 19 | 200 | 8.0 | 19.3 | 0.00 | 0.79 | 0.79 | 90 | 1013.2 |
| 20260903113341 | 19 | 202 | 9.7 | 17.7 | 0.00 | 0.79 | 0.79 | 89 | 1013.2 |
| 20260903113303 | 19 | 171 | 9.7 | 17.7 | 0.00 | 0.79 | 0.79 | 89 | 1013.3 |
| 20260903113218 | 19 | 180 | 9.7 | 17.7 | 0.00 | 0.79 | 0.79 | 89 | 1013.3 |
| 20260903113117 | 19 | 184 | 9.7 | 19.3 | 0.00 | 0.79 | 0.79 | 89 | 1013.2 |
| 20260903113039 | 19 | 172 | 8.0 | 19.3 | 0.00 | 0.79 | 0.79 | 89 | 1013.2 |
| 20260903112908 | 19 | 169 | 6.4 | 19.3 | 0.00 | 0.79 | 0.79 | 89 | 1013.3 |
| 20260903112822 | 19 | 165 | 8.0 | 19.3 | 0.00 | 0.79 | 0.79 | 89 | 1013.3 |
| 20260903112636 | 18 | 196 | 9.7 | 19.3 | 0.00 | 0.79 | 0.79 | 89 | 1013.3 |
| 20260903112532 | 18 | 182 | 6.4 | 19.3 | 0.00 | 0.79 | 0.79 | 90 | 1013.3 |
| 20260903112426 | 18 | 180 | 9.7 | 19.3 | 0.00 | 0.79 | 0.79 | 90 | 1013.3 |
| 20260903112347 | 18 | 194 | 9.7 | 19.3 | 0.00 | 0.79 | 0.79 | 90 | 1013.3 |
| 20260903112217 | 18 | 167 | 8.0 | 12.9 | 0.00 | 0.79 | 0.79 | 90 | 1013.3 |
| 20260903112132 | 18 | 126 | 8.0 | 12.9 | 0.00 | 0.79 | 0.79 | 90 | 1013.3 |
| 20260903112001 | 18 | 194 | 8.0 | 16.1 | 0.00 | 0.79 | 0.79 | 90 | 1013.3 |
| 20260903111922 | 18 | 188 | 6.4 | 16.1 | 0.00 | 0.79 | 0.79 | 90 | 1013.3 |
| 20260903111725 | 18 | 159 | 6.4 | 16.1 | 0.00 | 0.79 | 0.79 | 90 | 1013.3 |
| 20260903111646 | 18 | 184 | 6.4 | 16.1 | 0.00 | 0.79 | 0.79 | 90 | 1013.3 |
| 20260903111535 | 18 | 207 | 8.0 | 16.1 | 0.00 | 0.79 | 0.79 | 90 | 1013.3 |
| 20260903111455 | 18 | 179 | 9.7 | 16.1 | 0.00 | 0.79 | 0.79 | 90 | 1013.3 |
| 20260903111417 | 18 | 200 | 8.0 | 16.1 | 0.00 | 0.79 | 0.79 | 90 | 1013.3 |
| 20260903111322 | 18 | 154 | 6.4 | 16.1 | 0.00 | 0.79 | 0.79 | 90 | 1013.3 |
| 20260903111241 | 18 | 222 | 6.4 | 16.1 | 0.00 | 0.79 | 0.79 | 90 | 1013.2 |
| 20260903111050 | 18 | 175 | 8.0 | 16.1 | 0.00 | 0.79 | 0.79 | 90 | 1013.1 |
| 20260903111005 | 18 | 160 | 11.3 | 16.1 | 0.00 | 0.79 | 0.79 | 90 | 1013.1 |
| 20260903110813 | 18 | 162 | 9.7 | 17.7 | 0.00 | 0.79 | 0.79 | 90 | 1013.1 |
| 20260903110734 | 18 | 194 | 9.7 | 16.1 | 0.00 | 0.79 | 0.79 | 90 | 1013.1 |
| 20260903110537 | 18 | 186 | 8.0 | 17.7 | 0.00 | 0.79 | 0.79 | 90 | 1013.2 |
| 20260903110458 | 18 | 195 | 8.0 | 17.7 | 0.00 | 0.79 | 0.79 | 90 | 1013.2 |
| 20260903110404 | 18 | 155 | 6.4 | 17.7 | 0.00 | 0.79 | 0.79 | 90 | 1013.2 |
| 20260903110326 | 18 | 180 | 8.0 | 17.7 | 0.00 | 0.79 | 0.79 | 90 | 1013.2 |
| 20260903110128 | 18 | 185 | 11.3 | 17.7 | 0.00 | 0.79 | 0.79 | 90 | 1013.2 |
| 20260903110029 | 18 | 148 | 9.7 | 17.7 | 0.00 | 0.79 | 0.79 | 90 | 1013.2 |
| 20260903105933 | 18 | 213 | 9.7 | 17.7 | 0.00 | 0.79 | 0.79 | 90 | 1013.2 |
| 20260903105854 | 18 | 192 | 8.0 | 17.7 | 0.00 | 0.79 | 0.79 | 90 | 1013.2 |
| 20260903105815 | 18 | 178 | 8.0 | 17.7 | 0.00 | 0.79 | 0.79 | 90 | 1013.2 |
| 20260903105718 | 18 | 140 | 6.4 | 17.7 | 0.00 | 0.79 | 0.79 | 90 | 1013.2 |
| 20260903105618 | 18 | 172 | 8.0 | 17.7 | 0.00 | 0.79 | 0.79 | 90 | 1013.2 |
| 20260903105448 | 18 | 213 | 9.7 | 17.7 | 0.00 | 0.79 | 0.79 | 90 | 1013.1 |
| 20260903105327 | 18 | 172 | 11.3 | 17.7 | 0.00 | 0.79 | 0.79 | 90 | 1013.1 |
| 20260903105229 | 18 | 225 | 11.3 | 17.7 | 0.00 | 0.79 | 0.79 | 90 | 1013.1 |
| 20260903105150 | 18 | 152 | 11.3 | 17.7 | 0.00 | 0.79 | 0.79 | 90 | 1013.1 |
| 20260903104941 | 18 | 186 | 9.7 | 16.1 | 0.00 | 0.79 | 0.79 | 90 | 1013.1 |
| 20260903104833 | 18 | 200 | 11.3 | 16.1 | 0.00 | 0.79 | 0.79 | 90 | 1013.1 |
| 20260903104746 | 18 | 199 | 8.0 | 14.5 | 0.00 | 0.79 | 0.79 | 90 | 1013.2 |
| 20260903104627 | 18 | 209 | 6.4 | 16.1 | 0.00 | 0.79 | 0.79 | 90 | 1013.1 |
| 20260903104530 | 18 | 195 | 8.0 | 14.5 | 0.00 | 0.79 | 0.79 | 91 | 1013.1 |
| 20260903104437 | 18 | 181 | 9.7 | 14.5 | 0.00 | 0.79 | 0.79 | 90 | 1013.1 |
| 20260903104358 | 18 | 129 | 11.3 | 14.5 | 0.00 | 0.79 | 0.79 | 90 | 1013.0 |
| 20260903104248 | 18 | 164 | 8.0 | 16.1 | 0.00 | 0.79 | 0.79 | 91 | 1013.0 |
| 20260903104129 | 18 | 184 | 8.0 | 14.5 | 0.00 | 0.79 | 0.79 | 91 | 1013.0 |
| 20260903104033 | 18 | 96 | 9.7 | 14.5 | 0.00 | 0.79 | 0.79 | 91 | 1013.0 |
| 20260903103935 | 18 | 217 | 9.7 | 14.5 | 0.00 | 0.79 | 0.79 | 91 | 1013.0 |
| 20260903103804 | 18 | 188 | 9.7 | 14.5 | 0.00 | 0.79 | 0.79 | 91 | 1013.0 |
| 20260903103719 | 18 | 206 | 8.0 | 14.5 | 0.00 | 0.79 | 0.79 | 91 | 1013.1 |
| 20260903103548 | 18 | 183 | 6.4 | 12.9 | 0.00 | 0.79 | 0.79 | 91 | 1013.0 |
| 20260903103450 | 18 | 155 | 6.4 | 12.9 | 0.00 | 0.79 | 0.79 | 91 | 1013.0 |
| 20260903103333 | 18 | 232 | 8.0 | 12.9 | 0.00 | 0.79 | 0.79 | 91 | 1013.1 |
| 20260903103258 | 18 | 164 | 8.0 | 12.9 | 0.00 | 0.79 | 0.79 | 91 | 1013.0 |
| 20260903103202 | 18 | 194 | 8.0 | 12.9 | 0.00 | 0.79 | 0.79 | 91 | 1013.0 |
| 20260903103123 | 18 | 224 | 6.4 | 12.9 | 0.00 | 0.79 | 0.79 | 91 | 1013.0 |
| 20260903102936 | 18 | 207 | 6.4 | 12.9 | 0.00 | 0.79 | 0.79 | 91 | 1013.0 |
| 20260903102849 | 18 | 195 | 8.0 | 11.3 | 0.00 | 0.79 | 0.79 | 91 | 1013.0 |
| 20260903102657 | 18 | 167 | 4.8 | 12.9 | 0.00 | 0.79 | 0.79 | 91 | 1013.0 |
| 20260903102621 | 18 | 184 | 4.8 | 12.9 | 0.00 | 0.79 | 0.79 | 91 | 1013.0 |
| 20260903102534 | 18 | 180 | 4.8 | 14.5 | 0.00 | 0.79 | 0.79 | 91 | 1012.9 |
| 20260903102403 | 18 | 159 | 6.4 | 14.5 | 0.00 | 0.79 | 0.79 | 91 | 1012.9 |
| 20260903102324 | 18 | 181 | 6.4 | 14.5 | 0.00 | 0.79 | 0.79 | 91 | 1012.9 |
| 20260903102129 | 18 | 198 | 4.8 | 16.1 | 0.00 | 0.79 | 0.79 | 91 | 1012.9 |
| 20260903102029 | 18 | 168 | 6.4 | 16.1 | 0.00 | 0.79 | 0.79 | 91 | 1012.9 |
| 20260903101930 | 18 | 125 | 8.0 | 16.1 | 0.00 | 0.79 | 0.79 | 91 | 1012.9 |
| 20260903101845 | 18 | 220 | 8.0 | 16.1 | 0.00 | 0.79 | 0.79 | 91 | 1012.9 |
| 20260903101714 | 18 | 220 | 8.0 | 16.1 | 0.00 | 0.79 | 0.79 | 91 | 1012.9 |
| 20260903101635 | 18 | 194 | 8.0 | 16.1 | 0.00 | 0.79 | 0.79 | 91 | 1012.9 |
| 20260903101441 | 18 | 163 | 4.8 | 16.1 | 0.00 | 0.79 | 0.79 | 91 | 1012.9 |
| 20260903101401 | 18 | 188 | 4.8 | 16.1 | 0.00 | 0.79 | 0.79 | 91 | 1012.9 |
| 20260903101304 | 18 | 182 | 8.0 | 16.1 | 0.00 | 0.79 | 0.79 | 91 | 1012.8 |
| 20260903101226 | 18 | 181 | 8.0 | 16.1 | 0.00 | 0.79 | 0.79 | 91 | 1012.8 |
| 20260903101040 | 18 | 196 | 8.0 | 16.1 | 0.00 | 0.79 | 0.79 | 91 | 1012.9 |
| 20260903100953 | 18 | 193 | 8.0 | 16.1 | 0.00 | 0.79 | 0.79 | 91 | 1012.9 |
| 20260903100914 | 18 | 183 | 8.0 | 16.1 | 0.00 | 0.79 | 0.79 | 91 | 1012.9 |
| 20260903100835 | 18 | 161 | 6.4 | 16.1 | 0.00 | 0.79 | 0.79 | 91 | 1012.8 |
| 20260903100727 | 18 | 176 | 6.4 | 16.1 | 0.00 | 0.79 | 0.79 | 91 | 1012.8 |
| 20260903100537 | 18 | 132 | 6.4 | 14.5 | 0.00 | 0.79 | 0.79 | 91 | 1012.9 |
| 20260903100432 | 18 | 211 | 6.4 | 14.5 | 0.00 | 0.79 | 0.79 | 91 | 1012.9 |
| 20260903100353 | 18 | 202 | 8.0 | 14.5 | 0.00 | 0.79 | 0.79 | 91 | 1012.9 |
| 20260903100255 | 18 | 169 | 6.4 | 14.5 | 0.00 | 0.79 | 0.79 | 91 | 1012.9 |
| 20260903100216 | 18 | 232 | 6.4 | 12.9 | 0.00 | 0.79 | 0.79 | 91 | 1012.9 |
| 20260903100024 | 18 | 165 | 6.4 | 11.3 | 0.00 | 0.79 | 0.79 | 91 | 1012.9 |
| 20260903095924 | 18 | 167 | 6.4 | 11.3 | 0.00 | 0.79 | 0.79 | 91 | 1012.9 |
| 20260903095828 | 18 | 216 | 8.0 | 12.9 | 0.00 | 0.79 | 0.79 | 91 | 1012.8 |
| 20260903095749 | 18 | 184 | 6.4 | 12.9 | 0.00 | 0.79 | 0.79 | 91 | 1012.9 |
| 20260903095710 | 18 | 209 | 6.4 | 12.9 | 0.00 | 0.79 | 0.79 | 91 | 1012.9 |
| 20260903095552 | 18 | 222 | 6.4 | 12.9 | 0.00 | 0.79 | 0.79 | 91 | 1012.8 |
| 20260903095515 | 18 | 161 | 6.4 | 12.9 | 0.00 | 0.79 | 0.79 | 91 | 1012.9 |
| 20260903095436 | 18 | 184 | 4.8 | 12.9 | 0.00 | 0.79 | 0.79 | 91 | 1012.8 |
| 20260903095319 | 18 | 192 | 6.4 | 12.9 | 0.00 | 0.79 | 0.79 | 91 | 1012.9 |
| 20260903095219 | 18 | 167 | 6.4 | 12.9 | 0.00 | 0.79 | 0.79 | 91 | 1012.8 |
| 20260903095023 | 18 | 166 | 6.4 | 16.1 | 0.00 | 0.79 | 0.79 | 91 | 1012.8 |
| 20260903094927 | 18 | 199 | 4.8 | 11.3 | 0.00 | 0.79 | 0.79 | 91 | 1012.8 |
| 20260903094831 | 18 | 186 | 4.8 | 11.3 | 0.00 | 0.79 | 0.79 | 91 | 1012.8 |
| 20260903094733 | 18 | 200 | 6.4 | 11.3 | 0.00 | 0.79 | 0.79 | 91 | 1012.8 |
| 20260903094657 | 18 | 186 | 8.0 | 12.9 | 0.00 | 0.79 | 0.79 | 91 | 1012.8 |
| 20260903094558 | 18 | 158 | 4.8 | 12.9 | 0.00 | 0.79 | 0.79 | 91 | 1012.8 |
| 20260903094440 | 18 | 179 | 4.8 | 12.9 | 0.00 | 0.79 | 0.79 | 91 | 1012.7 |
| 20260903094342 | 18 | 147 | 6.4 | 12.9 | 0.00 | 0.79 | 0.79 | 91 | 1012.7 |
| 20260903094302 | 18 | 167 | 6.4 | 12.9 | 0.00 | 0.79 | 0.79 | 91 | 1012.8 |
| 20260903094203 | 18 | 191 | 6.4 | 12.9 | 0.00 | 0.79 | 0.79 | 91 | 1012.8 |
| 20260903094106 | 18 | 168 | 4.8 | 12.9 | 0.00 | 0.79 | 0.79 | 91 | 1012.8 |
| 20260903094032 | 18 | 135 | 4.8 | 12.9 | 0.00 | 0.79 | 0.79 | 91 | 1012.8 |
| 20260903093902 | 18 | 165 | 8.0 | 12.9 | 0.00 | 0.79 | 0.79 | 91 | 1012.8 |
| 20260903093818 | 18 | 159 | 6.4 | 12.9 | 0.00 | 0.79 | 0.79 | 91 | 1012.9 |
| 20260903093647 | 18 | 195 | 6.4 | 11.3 | 0.00 | 0.79 | 0.79 | 91 | 1012.8 |
| 20260903093549 | 18 | 158 | 6.4 | 12.9 | 0.00 | 0.79 | 0.79 | 91 | 1012.8 |
| 20260903093433 | 18 | 161 | 6.4 | 11.3 | 0.00 | 0.79 | 0.79 | 91 | 1012.8 |
| 20260903093356 | 18 | 190 | 6.4 | 11.3 | 0.00 | 0.79 | 0.79 | 91 | 1012.9 |
| 20260903093319 | 18 | 193 | 4.8 | 11.3 | 0.00 | 0.79 | 0.79 | 91 | 1012.9 |
| 20260903093222 | 18 | 207 | 3.2 | 11.3 | 0.00 | 0.79 | 0.79 | 91 | 1012.9 |
| 20260903093144 | 18 | 172 | 3.2 | 11.3 | 0.00 | 0.79 | 0.79 | 91 | 1012.8 |
| 20260903092901 | 18 | 211 | 4.8 | 11.3 | 0.00 | 0.79 | 0.79 | 91 | 1012.8 |
| 20260903092816 | 18 | 179 | 4.8 | 11.3 | 0.00 | 0.79 | 0.79 | 91 | 1012.8 |
| 20260903092630 | 18 | 175 | 3.2 | 16.1 | 0.00 | 0.79 | 0.79 | 91 | 1012.7 |
| 20260903092544 | 18 | 200 | 3.2 | 16.1 | 0.00 | 0.79 | 0.79 | 91 | 1012.7 |
| 20260903092352 | 18 | 186 | 3.2 | 16.1 | 0.00 | 0.79 | 0.79 | 91 | 1012.7 |
| 20260903092314 | 18 | 178 | 4.8 | 16.1 | 0.00 | 0.79 | 0.79 | 91 | 1012.7 |
| 20260903092136 | 18 | 160 | 4.8 | 16.1 | 0.00 | 0.79 | 0.79 | 91 | 1012.7 |
| 20260903092039 | 18 | 254 | 6.4 | 16.1 | 0.00 | 0.79 | 0.79 | 91 | 1012.7 |
| 20260903091941 | 18 | 216 | 8.0 | 16.1 | 0.00 | 0.79 | 0.79 | 91 | 1012.7 |
| 20260903091841 | 18 | 149 | 8.0 | 17.7 | 0.00 | 0.79 | 0.79 | 91 | 1012.7 |
| 20260903091710 | 18 | 231 | 9.7 | 16.1 | 0.00 | 0.79 | 0.79 | 91 | 1012.7 |
| 20260903091624 | 18 | 161 | 9.7 | 16.1 | 0.00 | 0.79 | 0.79 | 91 | 1012.7 |
| 20260903091454 | 18 | 205 | 9.7 | 16.1 | 0.00 | 0.79 | 0.79 | 91 | 1012.7 |
| 20260903091419 | 18 | 201 | 8.0 | 16.1 | 0.00 | 0.79 | 0.79 | 91 | 1012.6 |
| 20260903091225 | 18 | 238 | 8.0 | 14.5 | 0.00 | 0.79 | 0.79 | 91 | 1012.7 |
| 20260903091146 | 18 | 227 | 6.4 | 14.5 | 0.00 | 0.79 | 0.79 | 91 | 1012.7 |
| 20260903091031 | 18 | 203 | 8.0 | 14.5 | 0.00 | 0.79 | 0.79 | 91 | 1012.7 |
| 20260903091002 | 18 | 161 | 9.7 | 14.5 | 0.00 | 0.79 | 0.79 | 91 | 1012.7 |
| 20260903090833 | 18 | 188 | 9.7 | 14.5 | 0.00 | 0.79 | 0.79 | 91 | 1012.7 |
| 20260903090726 | 18 | 165 | 9.7 | 14.5 | 0.00 | 0.79 | 0.79 | 91 | 1012.7 |
| 20260903090535 | 18 | 202 | 8.0 | 14.5 | 0.00 | 0.79 | 0.79 | 91 | 1012.7 |
| 20260903090433 | 18 | 142 | 8.0 | 14.5 | 0.00 | 0.79 | 0.79 | 91 | 1012.7 |
| 20260903090359 | 18 | 171 | 8.0 | 14.5 | 0.00 | 0.79 | 0.79 | 91 | 1012.7 |
| 20260903090303 | 18 | 205 | 8.0 | 14.5 | 0.00 | 0.79 | 0.79 | 91 | 1012.7 |
| 20260903090225 | 18 | 235 | 4.8 | 16.1 | 0.00 | 0.79 | 0.79 | 91 | 1012.7 |
| 20260903090028 | 18 | 196 | 6.4 | 16.1 | 0.00 | 0.79 | 0.79 | 91 | 1012.8 |
| 20260903085928 | 18 | 162 | 6.4 | 16.1 | 0.00 | 0.79 | 0.79 | 91 | 1012.8 |
| 20260903085833 | 18 | 180 | 6.4 | 16.1 | 0.00 | 0.79 | 0.79 | 91 | 1012.8 |
| 20260903085733 | 18 | 164 | 8.0 | 16.1 | 0.00 | 0.79 | 0.79 | 91 | 1012.8 |
| 20260903085536 | 18 | 219 | 8.0 | 16.1 | 0.00 | 0.79 | 0.79 | 91 | 1012.9 |
| 20260903085424 | 17 | 209 | 9.7 | 16.1 | 0.00 | 0.79 | 0.79 | 91 | 1012.9 |
| 20260903085327 | 18 | 170 | 8.0 | 19.3 | 0.00 | 0.79 | 0.79 | 91 | 1012.9 |
| 20260903085249 | 17 | 167 | 8.0 | 19.3 | 0.00 | 0.79 | 0.79 | 91 | 1012.8 |
| 20260903085209 | 17 | 160 | 6.4 | 19.3 | 0.00 | 0.79 | 0.79 | 91 | 1012.9 |
| 20260903085113 | 18 | 156 | 6.4 | 19.3 | 0.00 | 0.79 | 0.79 | 91 | 1012.9 |
| 20260903085035 | 17 | 166 | 4.8 | 19.3 | 0.00 | 0.79 | 0.79 | 91 | 1012.9 |
| 20260903084904 | 17 | 153 | 8.0 | 19.3 | 0.00 | 0.79 | 0.79 | 91 | 1012.9 |
| 20260903084819 | 17 | 149 | 9.7 | 19.3 | 0.00 | 0.79 | 0.79 | 91 | 1012.9 |
| 20260903084630 | 17 | 162 | 11.3 | 19.3 | 0.00 | 0.79 | 0.79 | 91 | 1012.9 |
| 20260903084544 | 17 | 236 | 8.0 | 19.3 | 0.00 | 0.79 | 0.79 | 91 | 1012.9 |
| 20260903084414 | 17 | 255 | 4.8 | 16.1 | 0.00 | 0.79 | 0.79 | 91 | 1012.9 |
| 20260903084315 | 17 | 157 | 6.4 | 16.1 | 0.00 | 0.79 | 0.79 | 91 | 1012.9 |
| 20260903084123 | 17 | 178 | 4.8 | 16.1 | 0.00 | 0.79 | 0.79 | 91 | 1012.9 |
| 20260903084044 | 17 | 229 | 4.8 | 16.1 | 0.00 | 0.79 | 0.79 | 91 | 1012.9 |
| 20260903083928 | 17 | 173 | 4.8 | 16.1 | 0.00 | 0.79 | 0.79 | 91 | 1012.9 |
| 20260903083851 | 17 | 203 | 6.4 | 16.1 | 0.00 | 0.79 | 0.79 | 91 | 1012.9 |
| 20260903083813 | 17 | 202 | 6.4 | 16.1 | 0.00 | 0.79 | 0.79 | 91 | 1012.9 |
| 20260903083716 | 17 | 178 | 8.0 | 16.1 | 0.00 | 0.79 | 0.79 | 91 | 1012.9 |
| 20260903083616 | 17 | 178 | 8.0 | 16.1 | 0.00 | 0.79 | 0.79 | 91 | 1012.9 |
| 20260903083446 | 17 | 181 | 6.4 | 14.5 | 0.00 | 0.79 | 0.79 | 91 | 1012.9 |
| 20260903083341 | 17 | 154 | 6.4 | 12.9 | 0.00 | 0.79 | 0.79 | 91 | 1012.9 |
| 20260903083228 | 17 | 160 | 6.4 | 12.9 | 0.00 | 0.79 | 0.79 | 91 | 1012.9 |
| 20260903083149 | 17 | 155 | 8.0 | 16.1 | 0.00 | 0.79 | 0.79 | 91 | 1012.9 |
| 20260903082958 | 17 | 171 | 6.4 | 16.1 | 0.00 | 0.79 | 0.79 | 91 | 1013.0 |
| 20260903082915 | 17 | 188 | 4.8 | 16.1 | 0.00 | 0.79 | 0.79 | 91 | 1013.0 |
| 20260903082633 | 17 | 194 | 6.4 | 16.1 | 0.00 | 0.79 | 0.79 | 92 | 1013.0 |
| 20260903082548 | 17 | 192 | 8.0 | 16.1 | 0.00 | 0.79 | 0.79 | 92 | 1013.0 |
| 20260903082420 | 17 | 183 | 6.4 | 16.1 | 0.00 | 0.79 | 0.79 | 92 | 1013.0 |
| 20260903082320 | 17 | 169 | 4.8 | 9.7 | 0.00 | 0.79 | 0.79 | 92 | 1013.0 |
| 20260903082211 | 17 | 185 | 4.8 | 11.3 | 0.00 | 0.79 | 0.79 | 92 | 1013.0 |
| 20260903082133 | 17 | 195 | 4.8 | 14.5 | 0.00 | 0.79 | 0.79 | 92 | 1013.0 |
| 20260903081935 | 17 | 188 | 3.2 | 14.5 | 0.00 | 0.79 | 0.79 | 92 | 1013.0 |
| 20260903081842 | 17 | 145 | 4.8 | 14.5 | 0.00 | 0.79 | 0.79 | 92 | 1013.0 |
| 20260903081725 | 17 | 161 | 4.8 | 16.1 | 0.00 | 0.79 | 0.79 | 92 | 1013.0 |
| 20260903081646 | 17 | 186 | 3.2 | 16.1 | 0.03 | 0.79 | 0.79 | 92 | 1013.1 |
| 20260903081541 | 17 | 149 | 3.2 | 16.1 | 0.03 | 0.79 | 0.79 | 92 | 1013.1 |
| 20260903081502 | 17 | 171 | 6.4 | 16.1 | 0.03 | 0.79 | 0.79 | 92 | 1013.2 |
| 20260903081317 | 17 | 173 | 6.4 | 16.1 | 0.03 | 0.79 | 0.79 | 92 | 1013.2 |
| 20260903081244 | 17 | 173 | 4.8 | 16.1 | 0.03 | 0.79 | 0.79 | 92 | 1013.2 |
| 20260903081154 | 17 | 178 | 4.8 | 16.1 | 0.03 | 0.79 | 0.79 | 92 | 1013.2 |
| 20260903081130 | 17 | 175 | 4.8 | 16.1 | 0.03 | 0.79 | 0.79 | 92 | 1013.2 |
| 20260903080936 | 17 | 198 | 6.4 | 19.3 | 0.03 | 0.79 | 0.79 | 92 | 1013.2 |
| 20260903080835 | 17 | 69 | 4.8 | 17.7 | 0.03 | 0.79 | 0.79 | 92 | 1013.1 |
| 20260903080720 | 17 | 158 | 8.0 | 17.7 | 0.03 | 0.79 | 0.79 | 92 | 1013.1 |
| 20260903080651 | 17 | 223 | 6.4 | 17.7 | 0.03 | 0.79 | 0.79 | 92 | 1013.1 |
| 20260903080534 | 17 | 200 | 3.2 | 11.3 | 0.03 | 0.79 | 0.79 | 92 | 1013.0 |
| 20260903080455 | 17 | 179 | 4.8 | 11.3 | 0.03 | 0.79 | 0.79 | 92 | 1013.0 |
| 20260903080325 | 17 | 202 | 8.0 | 11.3 | 0.03 | 0.79 | 0.79 | 92 | 1013.0 |
| 20260903080218 | 17 | 178 | 8.0 | 11.3 | 0.05 | 0.79 | 0.79 | 92 | 1013.0 |
| 20260903080047 | 17 | 164 | 6.4 | 11.3 | 0.05 | 0.79 | 0.79 | 92 | 1013.0 |
| 20260903080011 | 17 | 171 | 6.4 | 11.3 | 0.05 | 0.79 | 0.79 | 92 | 1013.1 |
| 20260903075853 | 17 | 200 | 6.4 | 11.3 | 0.05 | 0.79 | 0.79 | 92 | 1013.1 |
| 20260903075816 | 17 | 179 | 6.4 | 11.3 | 0.05 | 0.79 | 0.79 | 92 | 1013.1 |
| 20260903075645 | 17 | 166 | 6.4 | 11.3 | 0.08 | 0.79 | 0.79 | 92 | 1013.2 |
| 20260903075540 | 17 | 209 | 6.4 | 11.3 | 0.08 | 0.79 | 0.79 | 92 | 1013.2 |
| 20260903075436 | 17 | 166 | 6.4 | 11.3 | 0.08 | 0.79 | 0.79 | 92 | 1013.2 |
| 20260903075358 | 17 | 215 | 6.4 | 11.3 | 0.10 | 0.79 | 0.79 | 92 | 1013.1 |
| 20260903075227 | 17 | 178 | 6.4 | 12.9 | 0.10 | 0.79 | 0.79 | 92 | 1013.0 |
| 20260903075130 | 17 | 173 | 4.8 | 12.9 | 0.10 | 0.79 | 0.79 | 92 | 1013.0 |
| 20260903075000 | 17 | 210 | 6.4 | 12.9 | 0.13 | 0.79 | 0.79 | 92 | 1013.1 |
| 20260903074922 | 17 | 173 | 6.4 | 12.9 | 0.13 | 0.79 | 0.79 | 92 | 1013.1 |
| 20260903074729 | 17 | 176 | 4.8 | 11.3 | 0.15 | 0.79 | 0.79 | 92 | 1013.2 |
| 20260903074630 | 17 | 161 | 4.8 | 11.3 | 0.18 | 0.79 | 0.79 | 92 | 1013.3 |
| 20260903074534 | 17 | 167 | 6.4 | 12.9 | 0.18 | 0.79 | 0.79 | 92 | 1013.3 |
| 20260903074455 | 17 | 172 | 4.8 | 9.7 | 0.20 | 0.79 | 0.79 | 92 | 1013.3 |
| 20260903074417 | 17 | 198 | 4.8 | 9.7 | 0.20 | 0.79 | 0.79 | 92 | 1013.3 |
| 20260903074301 | 17 | 162 | 6.4 | 9.7 | 0.23 | 0.79 | 0.79 | 92 | 1013.3 |
| 20260903074223 | 17 | 202 | 6.4 | 11.3 | 0.23 | 0.79 | 0.79 | 92 | 1013.3 |
| 20260903074054 | 17 | 167 | 4.8 | 11.3 | 0.25 | 0.79 | 0.79 | 92 | 1013.3 |
| 20260903074010 | 17 | 162 | 4.8 | 11.3 | 0.25 | 0.79 | 0.79 | 92 | 1013.3 |
| 20260903073840 | 17 | 181 | 4.8 | 11.3 | 0.28 | 0.79 | 0.79 | 92 | 1013.2 |
| 20260903073740 | 17 | 171 | 4.8 | 11.3 | 0.28 | 0.79 | 0.79 | 92 | 1013.2 |
| 20260903073614 | 17 | 128 | 4.8 | 12.9 | 0.28 | 0.79 | 0.79 | 92 | 1013.2 |
| 20260903073528 | 17 | 160 | 3.2 | 12.9 | 0.28 | 0.79 | 0.79 | 92 | 1013.2 |
| 20260903073358 | 17 | 173 | 3.2 | 12.9 | 0.28 | 0.79 | 0.79 | 92 | 1013.3 |
| 20260903073321 | 17 | 171 | 3.2 | 12.9 | 0.28 | 0.79 | 0.79 | 92 | 1013.3 |
| 20260903073236 | 17 | 193 | 3.2 | 12.9 | 0.30 | 0.79 | 0.79 | 92 | 1013.4 |
| 20260903073027 | 17 | 200 | 4.8 | 12.9 | 0.30 | 0.79 | 0.79 | 92 | 1013.4 |
| 20260903072941 | 17 | 164 | 8.0 | 12.9 | 0.30 | 0.79 | 0.79 | 92 | 1013.4 |
| 20260903072729 | 17 | 128 | 6.4 | 12.9 | 0.33 | 0.79 | 0.79 | 92 | 1013.4 |
| 20260903072643 | 17 | 172 | 4.8 | 8.0 | 0.33 | 0.79 | 0.79 | 92 | 1013.4 |
| 20260903072513 | 17 | 142 | 4.8 | 8.0 | 0.36 | 0.79 | 0.79 | 92 | 1013.3 |
| 20260903072436 | 17 | 129 | 4.8 | 8.0 | 0.36 | 0.79 | 0.79 | 92 | 1013.3 |
| 20260903072306 | 17 | 142 | 3.2 | 8.0 | 0.38 | 0.79 | 0.79 | 92 | 1013.4 |
| 20260903072225 | 17 | 220 | 3.2 | 8.0 | 0.38 | 0.79 | 0.79 | 92 | 1013.4 |
| 20260903071945 | 17 | 133 | 1.6 | 6.4 | 0.41 | 0.79 | 0.79 | 93 | 1013.4 |
| 20260903071839 | 17 | 159 | 1.6 | 6.4 | 0.41 | 0.79 | 0.79 | 93 | 1013.4 |
| 20260903071724 | 17 | 159 | 3.2 | 6.4 | 0.38 | 0.76 | 0.76 | 93 | 1013.4 |
| 20260903071645 | 17 | 178 | 3.2 | 8.0 | 0.38 | 0.76 | 0.76 | 93 | 1013.4 |
| 20260903071605 | 17 | 138 | 3.2 | 8.0 | 0.38 | 0.76 | 0.76 | 93 | 1013.4 |
| 20260903071447 | 17 | 157 | 1.6 | 8.0 | 0.41 | 0.76 | 0.76 | 93 | 1013.4 |
| 20260903071408 | 17 | 142 | 1.6 | 4.8 | 0.41 | 0.76 | 0.76 | 93 | 1013.4 |
| 20260903071311 | 17 | 142 | 0.0 | 4.8 | 0.41 | 0.76 | 0.76 | 93 | 1013.4 |
| 20260903071218 | 17 | 142 | 1.6 | 4.8 | 0.41 | 0.76 | 0.76 | 93 | 1013.4 |
| 20260903071141 | 17 | 142 | 1.6 | 4.8 | 0.41 | 0.76 | 0.76 | 93 | 1013.4 |
| 20260903070946 | 17 | 158 | 0.0 | 3.2 | 0.41 | 0.76 | 0.76 | 93 | 1013.4 |
| 20260903070840 | 17 | 147 | 0.0 | 3.2 | 0.41 | 0.76 | 0.76 | 93 | 1013.5 |
| 20260903070734 | 17 | 147 | 0.0 | 3.2 | 0.41 | 0.76 | 0.76 | 93 | 1013.5 |
| 20260903070636 | 17 | 147 | 0.0 | 3.2 | 0.43 | 0.76 | 0.76 | 93 | 1013.6 |
| 20260903070541 | 17 | 147 | 0.0 | 3.2 | 0.43 | 0.76 | 0.76 | 93 | 1013.6 |
| 20260903070502 | 17 | 147 | 0.0 | 3.2 | 0.43 | 0.76 | 0.76 | 92 | 1013.7 |
| 20260903070326 | 17 | 165 | 0.0 | 1.6 | 0.43 | 0.76 | 0.76 | 92 | 1013.7 |
| 20260903070231 | 17 | 165 | 0.0 | 1.6 | 0.41 | 0.74 | 0.74 | 92 | 1013.6 |
| 20260903070154 | 17 | 165 | 0.0 | 1.6 | 0.41 | 0.74 | 0.74 | 92 | 1013.6 |
| 20260903070055 | 17 | 165 | 0.0 | 1.6 | 0.41 | 0.74 | 0.74 | 92 | 1013.6 |
| 20260903070017 | 17 | 165 | 0.0 | 1.6 | 0.41 | 0.74 | 0.74 | 92 | 1013.6 |
| 20260903065841 | 17 | 165 | 0.0 | 1.6 | 0.41 | 0.74 | 0.74 | 92 | 1013.6 |
| 20260903065802 | 17 | 165 | 0.0 | 1.6 | 0.38 | 0.71 | 0.71 | 92 | 1013.6 |
| 20260903065723 | 17 | 165 | 0.0 | 1.6 | 0.38 | 0.71 | 0.71 | 92 | 1013.6 |
| 20260903065606 | 17 | 165 | 0.0 | 1.6 | 0.38 | 0.71 | 0.71 | 92 | 1013.6 |
| 20260903065528 | 17 | 165 | 0.0 | 3.2 | 0.38 | 0.71 | 0.71 | 92 | 1013.6 |
| 20260903065329 | 17 | 165 | 0.0 | 3.2 | 0.36 | 0.69 | 0.69 | 92 | 1013.6 |
| 20260903065234 | 17 | 165 | 0.0 | 4.8 | 0.36 | 0.69 | 0.69 | 92 | 1013.6 |
| 20260903065137 | 17 | 165 | 0.0 | 8.0 | 0.33 | 0.66 | 0.66 | 92 | 1013.7 |
| 20260903065101 | 17 | 165 | 0.0 | 8.0 | 0.33 | 0.66 | 0.66 | 92 | 1013.6 |
| 20260903064922 | 17 | 166 | 0.0 | 8.0 | 0.33 | 0.66 | 0.66 | 92 | 1013.7 |
| 20260903064815 | 17 | 166 | 0.0 | 8.0 | 0.30 | 0.64 | 0.64 | 92 | 1013.7 |
| 20260903064707 | 17 | 166 | 1.6 | 8.0 | 0.28 | 0.61 | 0.61 | 92 | 1013.7 |
| 20260903064608 | 17 | 165 | 1.6 | 8.0 | 0.28 | 0.61 | 0.61 | 92 | 1013.7 |
| 20260903064415 | 17 | 172 | 1.6 | 8.0 | 0.25 | 0.58 | 0.58 | 92 | 1013.8 |
| 20260903064329 | 17 | 142 | 1.6 | 6.4 | 0.23 | 0.56 | 0.56 | 92 | 1013.8 |
| 20260903064158 | 17 | 226 | 0.0 | 4.8 | 0.20 | 0.53 | 0.53 | 92 | 1013.8 |
| 20260903064124 | 17 | 226 | 0.0 | 8.0 | 0.20 | 0.53 | 0.53 | 92 | 1013.8 |
| 20260903063927 | 17 | 143 | 0.0 | 8.0 | 0.20 | 0.53 | 0.53 | 92 | 1013.7 |
| 20260903063848 | 17 | 143 | 0.0 | 8.0 | 0.18 | 0.51 | 0.51 | 92 | 1013.6 |
| 20260903063742 | 17 | 143 | 0.0 | 8.0 | 0.18 | 0.51 | 0.51 | 92 | 1013.6 |
| 20260903063704 | 17 | 143 | 0.0 | 8.0 | 0.18 | 0.51 | 0.51 | 92 | 1013.7 |
| 20260903063534 | 17 | 143 | 1.6 | 8.0 | 0.20 | 0.51 | 0.51 | 92 | 1013.7 |
| 20260903063425 | 17 | 146 | 1.6 | 8.0 | 0.20 | 0.51 | 0.51 | 92 | 1013.7 |
| 20260903063236 | 17 | 156 | 0.0 | 8.0 | 0.18 | 0.48 | 0.48 | 92 | 1013.7 |
| 20260903063130 | 17 | 151 | 1.6 | 8.0 | 0.18 | 0.48 | 0.48 | 92 | 1013.7 |
| 20260903063054 | 17 | 155 | 1.6 | 8.0 | 0.18 | 0.48 | 0.48 | 92 | 1013.8 |
| 20260903062938 | 17 | 171 | 1.6 | 9.7 | 0.18 | 0.48 | 0.48 | 92 | 1013.7 |
| 20260903062901 | 17 | 141 | 1.6 | 9.7 | 0.15 | 0.46 | 0.46 | 92 | 1013.7 |
| 20260903062742 | 17 | 178 | 3.2 | 9.7 | 0.15 | 0.46 | 0.46 | 92 | 1013.7 |
| 20260903062704 | 17 | 211 | 1.6 | 9.7 | 0.13 | 0.43 | 0.43 | 91 | 1013.8 |
| 20260903062512 | 17 | 206 | 3.2 | 9.7 | 0.15 | 0.43 | 0.43 | 91 | 1013.9 |
| 20260903062425 | 17 | 206 | 4.8 | 9.7 | 0.13 | 0.41 | 0.41 | 91 | 1013.9 |
| 20260903062235 | 17 | 194 | 3.2 | 9.7 | 0.13 | 0.41 | 0.41 | 91 | 1013.8 |
| 20260903062150 | 17 | 206 | 4.8 | 9.7 | 0.10 | 0.38 | 0.38 | 91 | 1013.8 |
| 20260903061909 | 17 | 148 | 1.6 | 6.4 | 0.10 | 0.38 | 0.38 | 91 | 1013.7 |
| 20260903061831 | 17 | 175 | 0.0 | 6.4 | 0.10 | 0.38 | 0.38 | 91 | 1013.7 |
| 20260903061639 | 17 | 175 | 1.6 | 6.4 | 0.10 | 0.38 | 0.38 | 90 | 1013.7 |
| 20260903061542 | 17 | 175 | 1.6 | 6.4 | 0.10 | 0.38 | 0.38 | 90 | 1013.7 |
| 20260903061445 | 17 | 163 | 1.6 | 6.4 | 0.08 | 0.36 | 0.36 | 90 | 1013.7 |
| 20260903061346 | 17 | 163 | 3.2 | 6.4 | 0.08 | 0.36 | 0.36 | 90 | 1013.8 |
| 20260903061215 | 17 | 146 | 1.6 | 4.8 | 0.08 | 0.36 | 0.36 | 90 | 1013.8 |
| 20260903061130 | 17 | 146 | 1.6 | 4.8 | 0.08 | 0.36 | 0.36 | 90 | 1013.8 |
| 20260903060940 | 17 | 178 | 1.6 | 6.4 | 0.08 | 0.36 | 0.36 | 90 | 1013.9 |
| 20260903060815 | 17 | 182 | 1.6 | 6.4 | 0.08 | 0.36 | 0.36 | 90 | 1013.9 |
| 20260903060733 | 17 | 196 | 3.2 | 6.4 | 0.08 | 0.36 | 0.36 | 90 | 1013.9 |
| 20260903060656 | 17 | 190 | 1.6 | 6.4 | 0.05 | 0.33 | 0.33 | 90 | 1013.8 |
| 20260903060618 | 17 | 164 | 1.6 | 6.4 | 0.05 | 0.33 | 0.33 | 90 | 1013.9 |
| 20260903060511 | 17 | 200 | 1.6 | 6.4 | 0.05 | 0.33 | 0.33 | 89 | 1013.8 |
| 20260903060433 | 17 | 150 | 1.6 | 6.4 | 0.05 | 0.33 | 0.33 | 89 | 1013.8 |
| 20260903060236 | 17 | 172 | 3.2 | 6.4 | 0.05 | 0.33 | 0.33 | 89 | 1013.9 |
| 20260903060139 | 17 | 155 | 3.2 | 12.9 | 0.05 | 0.33 | 0.33 | 89 | 1013.9 |
| 20260903060024 | 17 | 157 | 1.6 | 12.9 | 0.05 | 0.33 | 0.33 | 89 | 1013.9 |
| 20260903055946 | 17 | 155 | 1.6 | 17.7 | 0.05 | 0.33 | 0.33 | 89 | 1013.8 |
| 20260903055811 | 17 | 183 | 4.8 | 17.7 | 0.05 | 0.33 | 0.33 | 89 | 1013.9 |
| 20260903055736 | 17 | 168 | 4.8 | 17.7 | 0.05 | 0.33 | 0.33 | 89 | 1013.9 |
| 20260903055607 | 17 | 144 | 4.8 | 17.7 | 0.08 | 0.33 | 0.33 | 89 | 1014.0 |
| 20260903055529 | 17 | 156 | 4.8 | 17.7 | 0.08 | 0.33 | 0.33 | 88 | 1014.0 |
| 20260903055333 | 17 | 161 | 9.7 | 17.7 | 0.08 | 0.33 | 0.33 | 88 | 1014.0 |
| 20260903055256 | 17 | 172 | 9.7 | 17.7 | 0.08 | 0.33 | 0.33 | 89 | 1014.0 |
| 20260903055200 | 17 | 166 | 9.7 | 17.7 | 0.08 | 0.33 | 0.33 | 88 | 1014.0 |
| 20260903055121 | 17 | 184 | 8.0 | 17.7 | 0.08 | 0.33 | 0.33 | 88 | 1014.0 |
| 20260903054953 | 17 | 182 | 4.8 | 8.0 | 0.08 | 0.33 | 0.33 | 89 | 1014.1 |
| 20260903054846 | 17 | 217 | 3.2 | 8.0 | 0.08 | 0.33 | 0.33 | 89 | 1014.1 |
| 20260903054717 | 17 | 190 | 3.2 | 11.3 | 0.18 | 0.33 | 0.33 | 89 | 1014.0 |
| 20260903054639 | 17 | 190 | 3.2 | 11.3 | 0.18 | 0.33 | 0.33 | 89 | 1014.0 |
| 20260903054426 | 17 | 240 | 1.6 | 11.3 | 0.33 | 0.33 | 0.33 | 89 | 1014.0 |
| 20260903054348 | 17 | 166 | 1.6 | 11.3 | 0.33 | 0.33 | 0.33 | 89 | 1014.0 |
| 20260903054251 | 17 | 166 | 1.6 | 11.3 | 0.33 | 0.33 | 0.33 | 89 | 1014.1 |
| 20260903054212 | 17 | 163 | 1.6 | 11.3 | 0.33 | 0.33 | 0.33 | 89 | 1014.1 |
| 20260903054133 | 17 | 128 | 3.2 | 11.3 | 0.33 | 0.33 | 0.33 | 89 | 1014.1 |
| 20260903054016 | 18 | 128 | 4.8 | 11.3 | 0.33 | 0.33 | 0.33 | 89 | 1014.1 |
| 20260903053937 | 18 | 163 | 4.8 | 11.3 | 0.33 | 0.33 | 0.33 | 89 | 1014.2 |
| 20260903053747 | 18 | 159 | 3.2 | 9.7 | 0.33 | 0.33 | 0.33 | 90 | 1014.3 |
| 20260903053641 | 18 | 159 | 1.6 | 9.7 | 0.33 | 0.33 | 0.33 | 90 | 1014.3 |
| 20260903053526 | 18 | 159 | 3.2 | 9.7 | 0.30 | 0.30 | 0.30 | 89 | 1014.3 |
| 20260903053452 | 18 | 153 | 4.8 | 9.7 | 0.30 | 0.30 | 0.30 | 89 | 1014.4 |
| 20260903053415 | 18 | 128 | 1.6 | 4.8 | 0.30 | 0.30 | 0.30 | 89 | 1014.4 |
| 20260903053258 | 18 | 142 | 1.6 | 4.8 | 0.30 | 0.30 | 0.30 | 90 | 1014.4 |
| 20260903053221 | 18 | 134 | 1.6 | 4.8 | 0.30 | 0.30 | 0.30 | 90 | 1014.4 |
| 20260903053142 | 18 | 134 | 1.6 | 6.4 | 0.30 | 0.30 | 0.30 | 90 | 1014.4 |
| 20260903053012 | 18 | 132 | 0.0 | 6.4 | 0.30 | 0.30 | 0.30 | 90 | 1014.4 |
| 20260903052926 | 18 | 132 | 0.0 | 6.4 | 0.30 | 0.30 | 0.30 | 90 | 1014.4 |
| 20260903052757 | 18 | 132 | 0.0 | 6.4 | 0.30 | 0.30 | 0.30 | 90 | 1014.5 |
| 20260903052718 | 18 | 153 | 0.0 | 6.4 | 0.30 | 0.30 | 0.30 | 90 | 1014.5 |
| 20260903052542 | 18 | 194 | 0.0 | 6.4 | 0.28 | 0.28 | 0.28 | 90 | 1014.5 |
| 20260903052444 | 18 | 194 | 1.6 | 6.4 | 0.28 | 0.28 | 0.28 | 90 | 1014.5 |
| 20260903052331 | 18 | 194 | 1.6 | 6.4 | 0.28 | 0.28 | 0.28 | 90 | 1014.6 |
| 20260903052252 | 18 | 185 | 0.0 | 4.8 | 0.28 | 0.28 | 0.28 | 90 | 1014.6 |
| 20260903052034 | 18 | 185 | 1.6 | 4.8 | 0.28 | 0.28 | 0.28 | 90 | 1014.5 |
| 20260903051957 | 18 | 157 | 1.6 | 4.8 | 0.28 | 0.28 | 0.28 | 90 | 1014.5 |
| 20260903051823 | 18 | 175 | 1.6 | 4.8 | 0.28 | 0.28 | 0.28 | 90 | 1014.5 |
| 20260903051727 | 18 | 175 | 1.6 | 4.8 | 0.28 | 0.28 | 0.28 | 90 | 1014.5 |
| 20260903051647 | 18 | 154 | 0.0 | 4.8 | 0.28 | 0.28 | 0.28 | 90 | 1014.5 |
| 20260903051458 | 18 | 154 | 1.6 | 4.8 | 0.28 | 0.28 | 0.28 | 90 | 1014.5 |
| 20260903051412 | 18 | 159 | 0.0 | 4.8 | 0.28 | 0.28 | 0.28 | 90 | 1014.5 |
| 20260903051221 | 18 | 159 | 0.0 | 4.8 | 0.28 | 0.28 | 0.28 | 90 | 1014.5 |
| 20260903051126 | 18 | 159 | 0.0 | 4.8 | 0.28 | 0.28 | 0.28 | 90 | 1014.5 |
| 20260903050930 | 18 | 159 | 0.0 | 9.7 | 0.28 | 0.28 | 0.28 | 89 | 1014.6 |
| 20260903050831 | 18 | 159 | 0.0 | 9.7 | 0.28 | 0.28 | 0.28 | 89 | 1014.6 |
| 20260903050725 | 18 | 159 | 3.2 | 9.7 | 0.28 | 0.28 | 0.28 | 88 | 1014.6 |
| 20260903050625 | 18 | 159 | 3.2 | 9.7 | 0.28 | 0.28 | 0.28 | 88 | 1014.6 |
| 20260903050457 | 18 | 166 | 1.6 | 9.7 | 0.28 | 0.28 | 0.28 | 88 | 1014.6 |
| 20260903050330 | 18 | 174 | 3.2 | 9.7 | 0.28 | 0.28 | 0.28 | 88 | 1014.6 |
| 20260903050225 | 18 | 154 | 4.8 | 9.7 | 0.28 | 0.28 | 0.28 | 88 | 1014.6 |
| 20260903050146 | 18 | 182 | 4.8 | 8.0 | 0.28 | 0.28 | 0.28 | 88 | 1014.6 |
| 20260903050022 | 18 | 177 | 1.6 | 8.0 | 0.28 | 0.28 | 0.28 | 89 | 1014.6 |
| 20260903045916 | 18 | 181 | 1.6 | 8.0 | 0.28 | 0.28 | 0.28 | 88 | 1014.6 |
| 20260903045747 | 18 | 130 | 1.6 | 8.0 | 0.28 | 0.28 | 0.28 | 88 | 1014.5 |
| 20260903045647 | 18 | 169 | 1.6 | 4.8 | 0.25 | 0.25 | 0.25 | 88 | 1014.5 |
| 20260903045519 | 18 | 173 | 1.6 | 4.8 | 0.25 | 0.25 | 0.25 | 88 | 1014.4 |
| 20260903045432 | 18 | 173 | 1.6 | 9.7 | 0.25 | 0.25 | 0.25 | 87 | 1014.4 |
| 20260903045241 | 18 | 171 | 1.6 | 9.7 | 0.25 | 0.25 | 0.25 | 87 | 1014.4 |
| 20260903045135 | 18 | 171 | 1.6 | 9.7 | 0.25 | 0.25 | 0.25 | 87 | 1014.4 |
| 20260903045058 | 18 | 140 | 0.0 | 9.7 | 0.25 | 0.25 | 0.25 | 87 | 1014.5 |
| 20260903044928 | 18 | 140 | 1.6 | 9.7 | 0.25 | 0.25 | 0.25 | 86 | 1014.5 |
| 20260903044852 | 18 | 142 | 1.6 | 9.7 | 0.23 | 0.23 | 0.23 | 86 | 1014.5 |
| 20260903044702 | 18 | 167 | 3.2 | 9.7 | 0.10 | 0.10 | 0.10 | 86 | 1014.4 |
| 20260903044624 | 18 | 142 | 3.2 | 9.7 | 0.03 | 0.03 | 0.03 | 85 | 1014.4 |
| 20260903044428 | 18 | 186 | 4.8 | 8.0 | 0.00 | 0.00 | 0.00 | 85 | 1014.6 |
| 20260903044352 | 18 | 193 | 3.2 | 8.0 | 0.00 | 0.00 | 0.00 | 85 | 1014.6 |
| 20260903044236 | 18 | 346 | 0.0 | 1.6 | 0.00 | 0.00 | 0.00 | 86 | 1014.6 |
| 20260903044159 | 18 | 346 | 0.0 | 1.6 | 0.00 | 0.00 | 0.00 | 86 | 1014.5 |
| 20260903043942 | 18 | 346 | 0.0 | 4.8 | 0.00 | 0.00 | 0.00 | 85 | 1014.5 |
| 20260903043850 | 18 | 346 | 0.0 | 4.8 | 0.00 | 0.00 | 0.00 | 86 | 1014.4 |
| 20260903043732 | 18 | 346 | 0.0 | 6.4 | 0.00 | 0.00 | 0.00 | 85 | 1014.4 |
| 20260903043627 | 19 | 346 | 0.0 | 6.4 | 0.00 | 0.00 | 0.00 | 85 | 1014.4 |
| 20260903043532 | 19 | 346 | 1.6 | 6.4 | 0.00 | 0.00 | 0.00 | 84 | 1014.4 |
| 20260903043454 | 19 | 346 | 0.0 | 6.4 | 0.00 | 0.00 | 0.00 | 84 | 1014.5 |
| 20260903043416 | 19 | 346 | 0.0 | 6.4 | 0.00 | 0.00 | 0.00 | 85 | 1014.5 |
| 20260903043245 | 19 | 346 | 1.6 | 6.4 | 0.00 | 0.00 | 0.00 | 85 | 1014.4 |
| 20260903043139 | 19 | 346 | 3.2 | 6.4 | 0.00 | 0.00 | 0.00 | 84 | 1014.5 |
| 20260903043029 | 19 | 350 | 3.2 | 6.4 | 0.00 | 0.00 | 0.00 | 84 | 1014.5 |
| 20260903042951 | 19 | 333 | 3.2 | 4.8 | 0.00 | 0.00 | 0.00 | 84 | 1014.6 |
| 20260903042853 | 19 | 333 | 3.2 | 4.8 | 0.00 | 0.00 | 0.00 | 84 | 1014.6 |
| 20260903042758 | 19 | 333 | 3.2 | 8.0 | 0.00 | 0.00 | 0.00 | 83 | 1014.6 |
| 20260903042718 | 19 | 332 | 3.2 | 8.0 | 0.00 | 0.00 | 0.00 | 83 | 1014.5 |
| 20260903042550 | 19 | 346 | 1.6 | 8.0 | 0.00 | 0.00 | 0.00 | 83 | 1014.5 |
| 20260903042443 | 19 | 80 | 0.0 | 8.0 | 0.00 | 0.00 | 0.00 | 82 | 1014.5 |
| 20260903042314 | 19 | 94 | 1.6 | 9.7 | 0.00 | 0.00 | 0.00 | 82 | 1014.4 |
| 20260903042236 | 19 | 115 | 1.6 | 9.7 | 0.00 | 0.00 | 0.00 | 81 | 1014.3 |
| 20260903042047 | 19 | 119 | 3.2 | 9.7 | 0.00 | 0.00 | 0.00 | 81 | 1014.3 |
| 20260903041940 | 19 | 127 | 3.2 | 9.7 | 0.00 | 0.00 | 0.00 | 82 | 1014.3 |
| 20260903041829 | 20 | 141 | 3.2 | 9.7 | 0.00 | 0.00 | 0.00 | 81 | 1014.4 |
| 20260903041751 | 20 | 170 | 3.2 | 9.7 | 0.00 | 0.00 | 0.00 | 81 | 1014.5 |
| 20260903041712 | 20 | 159 | 3.2 | 9.7 | 0.00 | 0.00 | 0.00 | 81 | 1014.5 |
| 20260903041617 | 20 | 164 | 3.2 | 9.7 | 0.00 | 0.00 | 0.00 | 81 | 1014.5 |
| 20260903041539 | 20 | 153 | 3.2 | 9.7 | 0.00 | 0.00 | 0.00 | 80 | 1014.5 |
| 20260903041410 | 20 | 164 | 4.8 | 9.7 | 0.00 | 0.00 | 0.00 | 80 | 1014.6 |
| 20260903041326 | 20 | 169 | 4.8 | 8.0 | 0.00 | 0.00 | 0.00 | 80 | 1014.6 |
| 20260903041104 | 20 | 173 | 4.8 | 8.0 | 0.00 | 0.00 | 0.00 | 80 | 1014.5 |
| 20260903041027 | 20 | 150 | 4.8 | 8.0 | 0.00 | 0.00 | 0.00 | 80 | 1014.5 |
| 20260903040857 | 20 | 166 | 3.2 | 8.0 | 0.00 | 0.00 | 0.00 | 80 | 1014.6 |
| 20260903040750 | 20 | 166 | 3.2 | 8.0 | 0.00 | 0.00 | 0.00 | 79 | 1014.6 |
| 20260903040619 | 20 | 179 | 1.6 | 4.8 | 0.00 | 0.00 | 0.00 | 79 | 1014.7 |
| 20260903040542 | 20 | 142 | 1.6 | 4.8 | 0.00 | 0.00 | 0.00 | 78 | 1014.7 |
| 20260903040439 | 20 | 142 | 1.6 | 4.8 | 0.00 | 0.00 | 0.00 | 78 | 1014.7 |
| 20260903040310 | 20 | 142 | 1.6 | 4.8 | 0.00 | 0.00 | 0.00 | 78 | 1014.7 |
| 20260903040231 | 20 | 140 | 1.6 | 4.8 | 0.00 | 0.00 | 0.00 | 79 | 1014.7 |
| 20260903040055 | 20 | 127 | 1.6 | 4.8 | 0.00 | 0.00 | 0.00 | 78 | 1014.8 |
| 20260903040018 | 20 | 127 | 1.6 | 4.8 | 0.00 | 0.00 | 0.00 | 78 | 1014.8 |
| 20260903035847 | 20 | 163 | 1.6 | 4.8 | 0.00 | 0.00 | 0.00 | 78 | 1014.9 |
| 20260903035758 | 20 | 163 | 0.0 | 4.8 | 0.00 | 0.00 | 0.00 | 77 | 1014.9 |
| 20260903035640 | 20 | 181 | 0.0 | 4.8 | 0.00 | 0.00 | 0.00 | 77 | 1014.9 |
| 20260903035603 | 20 | 181 | 0.0 | 4.8 | 0.00 | 0.00 | 0.00 | 78 | 1014.9 |
| 20260903035427 | 20 | 181 | 0.0 | 4.8 | 0.00 | 0.00 | 0.00 | 78 | 1014.9 |
| 20260903035349 | 20 | 181 | 0.0 | 6.4 | 0.00 | 0.00 | 0.00 | 77 | 1014.8 |
| 20260903035135 | 20 | 181 | 1.6 | 8.0 | 0.00 | 0.00 | 0.00 | 77 | 1014.9 |
| 20260903035037 | 20 | 181 | 1.6 | 8.0 | 0.00 | 0.00 | 0.00 | 77 | 1014.9 |
| 20260903034923 | 20 | 181 | 1.6 | 8.0 | 0.00 | 0.00 | 0.00 | 77 | 1014.8 |
| 20260903034845 | 20 | 142 | 1.6 | 8.0 | 0.00 | 0.00 | 0.00 | 77 | 1014.8 |
| 20260903034629 | 20 | 142 | 3.2 | 8.0 | 0.00 | 0.00 | 0.00 | 77 | 1014.8 |
| 20260903034551 | 20 | 142 | 4.8 | 8.0 | 0.00 | 0.00 | 0.00 | 77 | 1014.7 |
| 20260903034456 | 20 | 189 | 3.2 | 8.0 | 0.00 | 0.00 | 0.00 | 77 | 1014.7 |
| 20260903034417 | 20 | 214 | 3.2 | 8.0 | 0.00 | 0.00 | 0.00 | 77 | 1014.7 |
| 20260903034228 | 20 | 163 | 3.2 | 8.0 | 0.00 | 0.00 | 0.00 | 77 | 1014.6 |
| 20260903034127 | 20 | 179 | 3.2 | 11.3 | 0.00 | 0.00 | 0.00 | 77 | 1014.6 |
| 20260903034049 | 20 | 174 | 3.2 | 11.3 | 0.00 | 0.00 | 0.00 | 77 | 1014.6 |
| 20260903033953 | 20 | 173 | 3.2 | 11.3 | 0.00 | 0.00 | 0.00 | 77 | 1014.5 |
| 20260903033916 | 20 | 163 | 3.2 | 11.3 | 0.00 | 0.00 | 0.00 | 77 | 1014.5 |
| 20260903033745 | 20 | 144 | 4.8 | 11.3 | 0.00 | 0.00 | 0.00 | 76 | 1014.5 |
| 20260903033641 | 20 | 156 | 3.2 | 11.3 | 0.00 | 0.00 | 0.00 | 76 | 1014.5 |
| 20260903033511 | 20 | 163 | 6.4 | 11.3 | 0.00 | 0.00 | 0.00 | 76 | 1014.5 |
| 20260903033433 | 20 | 167 | 6.4 | 11.3 | 0.00 | 0.00 | 0.00 | 76 | 1014.5 |
| 20260903033238 | 20 | 188 | 4.8 | 11.3 | 0.00 | 0.00 | 0.00 | 76 | 1014.6 |
| 20260903033140 | 20 | 155 | 3.2 | 11.3 | 0.00 | 0.00 | 0.00 | 76 | 1014.5 |
| 20260903033048 | 20 | 140 | 4.8 | 11.3 | 0.00 | 0.00 | 0.00 | 76 | 1014.6 |
| 20260903033008 | 20 | 161 | 4.8 | 11.3 | 0.00 | 0.00 | 0.00 | 76 | 1014.6 |
| 20260903032819 | 20 | 175 | 4.8 | 11.3 | 0.00 | 0.00 | 0.00 | 76 | 1014.7 |
| 20260903032714 | 20 | 184 | 4.8 | 11.3 | 0.00 | 0.00 | 0.00 | 76 | 1014.7 |
| 20260903032545 | 20 | 208 | 4.8 | 11.3 | 0.00 | 0.00 | 0.00 | 76 | 1014.6 |
| 20260903032446 | 20 | 190 | 4.8 | 12.9 | 0.00 | 0.00 | 0.00 | 76 | 1014.6 |
| 20260903032348 | 20 | 176 | 4.8 | 12.9 | 0.00 | 0.00 | 0.00 | 76 | 1014.4 |
| 20260903032213 | 20 | 167 | 4.8 | 17.7 | 0.00 | 0.00 | 0.00 | 76 | 1014.4 |
| 20260903032136 | 20 | 155 | 3.2 | 17.7 | 0.00 | 0.00 | 0.00 | 76 | 1014.4 |
| 20260903032007 | 20 | 173 | 4.8 | 17.7 | 0.00 | 0.00 | 0.00 | 76 | 1014.4 |
| 20260903031929 | 20 | 167 | 4.8 | 17.7 | 0.00 | 0.00 | 0.00 | 76 | 1014.4 |
| 20260903031735 | 20 | 140 | 4.8 | 17.7 | 0.00 | 0.00 | 0.00 | 76 | 1014.3 |
| 20260903031658 | 20 | 162 | 8.0 | 17.7 | 0.00 | 0.00 | 0.00 | 76 | 1014.3 |
| 20260903031542 | 20 | 138 | 12.9 | 17.7 | 0.00 | 0.00 | 0.00 | 76 | 1014.3 |
| 20260903031504 | 20 | 159 | 11.3 | 16.1 | 0.00 | 0.00 | 0.00 | 76 | 1014.3 |
| 20260903031347 | 20 | 186 | 9.7 | 17.7 | 0.00 | 0.00 | 0.00 | 76 | 1014.3 |
| 20260903031308 | 20 | 200 | 8.0 | 17.7 | 0.00 | 0.00 | 0.00 | 76 | 1014.3 |
| 20260903031119 | 20 | 175 | 6.4 | 17.7 | 0.00 | 0.00 | 0.00 | 76 | 1014.2 |
| 20260903031034 | 20 | 132 | 8.0 | 17.7 | 0.00 | 0.00 | 0.00 | 76 | 1014.2 |
| 20260903030814 | 20 | 164 | 4.8 | 19.3 | 0.00 | 0.00 | 0.00 | 76 | 1014.2 |
| 20260903030734 | 20 | 202 | 3.2 | 16.1 | 0.00 | 0.00 | 0.00 | 76 | 1014.2 |
| 20260903030606 | 20 | 193 | 6.4 | 16.1 | 0.00 | 0.00 | 0.00 | 76 | 1014.2 |
| 20260903030524 | 20 | 129 | 8.0 | 16.1 | 0.00 | 0.00 | 0.00 | 76 | 1014.2 |
| 20260903030335 | 20 | 209 | 8.0 | 16.1 | 0.00 | 0.00 | 0.00 | 76 | 1014.3 |
| 20260903030249 | 20 | 172 | 8.0 | 16.1 | 0.00 | 0.00 | 0.00 | 76 | 1014.3 |
| 20260903030121 | 20 | 169 | 6.4 | 12.9 | 0.00 | 0.00 | 0.00 | 76 | 1014.3 |
| 20260903030043 | 20 | 142 | 6.4 | 12.9 | 0.00 | 0.00 | 0.00 | 76 | 1014.3 |
| 20260903025907 | 20 | 150 | 4.8 | 11.3 | 0.00 | 0.00 | 0.00 | 76 | 1014.4 |
| 20260903025829 | 20 | 130 | 3.2 | 8.0 | 0.00 | 0.00 | 0.00 | 76 | 1014.4 |
| 20260903025633 | 20 | 121 | 3.2 | 20.9 | 0.00 | 0.00 | 0.00 | 76 | 1014.5 |
| 20260903025535 | 20 | 127 | 1.6 | 20.9 | 0.00 | 0.00 | 0.00 | 76 | 1014.5 |
| 20260903025425 | 20 | 109 | 3.2 | 20.9 | 0.00 | 0.00 | 0.00 | 76 | 1014.5 |
| 20260903025348 | 20 | 133 | 3.2 | 20.9 | 0.00 | 0.00 | 0.00 | 76 | 1014.6 |
| 20260903025218 | 20 | 121 | 3.2 | 20.9 | 0.00 | 0.00 | 0.00 | 75 | 1014.7 |
| 20260903025132 | 20 | 127 | 3.2 | 20.9 | 0.00 | 0.00 | 0.00 | 75 | 1014.7 |
| 20260903025003 | 20 | 132 | 9.7 | 20.9 | 0.00 | 0.00 | 0.00 | 75 | 1014.8 |
| 20260903024927 | 20 | 153 | 11.3 | 24.1 | 0.00 | 0.00 | 0.00 | 75 | 1014.8 |
| 20260903024730 | 20 | 172 | 9.7 | 19.3 | 0.00 | 0.00 | 0.00 | 75 | 1014.8 |
| 20260903024653 | 20 | 161 | 9.7 | 19.3 | 0.00 | 0.00 | 0.00 | 75 | 1014.8 |
| 20260903024558 | 20 | 171 | 9.7 | 19.3 | 0.00 | 0.00 | 0.00 | 75 | 1014.9 |
| 20260903024520 | 20 | 153 | 11.3 | 19.3 | 0.00 | 0.00 | 0.00 | 75 | 1015.0 |
| 20260903024441 | 20 | 134 | 11.3 | 19.3 | 0.00 | 0.00 | 0.00 | 75 | 1015.0 |
| 20260903024324 | 20 | 181 | 9.7 | 17.7 | 0.00 | 0.00 | 0.00 | 75 | 1014.9 |
| 20260903024220 | 20 | 183 | 9.7 | 17.7 | 0.00 | 0.00 | 0.00 | 75 | 1015.0 |
| 20260903024032 | 20 | 151 | 11.3 | 17.7 | 0.00 | 0.00 | 0.00 | 75 | 1015.0 |
| 20260903023957 | 20 | 117 | 11.3 | 17.7 | 0.00 | 0.00 | 0.00 | 74 | 1015.1 |
| 20260903023828 | 20 | 194 | 11.3 | 20.9 | 0.00 | 0.00 | 0.00 | 74 | 1015.2 |
| 20260903023728 | 20 | 171 | 9.7 | 19.3 | 0.00 | 0.00 | 0.00 | 75 | 1015.2 |
| 20260903023532 | 20 | 167 | 8.0 | 19.3 | 0.00 | 0.00 | 0.00 | 74 | 1015.2 |
| 20260903023456 | 20 | 194 | 8.0 | 19.3 | 0.00 | 0.00 | 0.00 | 74 | 1015.2 |
| 20260903023358 | 20 | 211 | 9.7 | 19.3 | 0.00 | 0.00 | 0.00 | 74 | 1015.2 |
| 20260903023319 | 20 | 140 | 9.7 | 17.7 | 0.00 | 0.00 | 0.00 | 74 | 1015.3 |
| 20260903023148 | 20 | 167 | 8.0 | 17.7 | 0.00 | 0.00 | 0.00 | 74 | 1015.3 |
| 20260903023027 | 20 | 194 | 9.7 | 17.7 | 0.00 | 0.00 | 0.00 | 74 | 1015.2 |
| 20260903022930 | 20 | 184 | 9.7 | 17.7 | 0.00 | 0.00 | 0.00 | 74 | 1015.2 |
| 20260903022836 | 20 | 173 | 11.3 | 22.5 | 0.00 | 0.00 | 0.00 | 74 | 1015.2 |
| 20260903022757 | 20 | 173 | 12.9 | 22.5 | 0.00 | 0.00 | 0.00 | 74 | 1015.2 |
| 20260903022642 | 20 | 146 | 11.3 | 22.5 | 0.00 | 0.00 | 0.00 | 74 | 1015.1 |
| 20260903022604 | 20 | 140 | 9.7 | 22.5 | 0.00 | 0.00 | 0.00 | 74 | 1015.2 |
| 20260903022448 | 20 | 123 | 9.7 | 22.5 | 0.00 | 0.00 | 0.00 | 74 | 1015.2 |
| 20260903022350 | 20 | 156 | 8.0 | 22.5 | 0.00 | 0.00 | 0.00 | 74 | 1015.2 |
| 20260903022221 | 20 | 163 | 8.0 | 22.5 | 0.00 | 0.00 | 0.00 | 75 | 1015.3 |
| 20260903022114 | 20 | 155 | 11.3 | 22.5 | 0.00 | 0.00 | 0.00 | 74 | 1015.3 |
| 20260903021950 | 20 | 183 | 8.0 | 20.9 | 0.00 | 0.00 | 0.00 | 74 | 1015.3 |
| 20260903021912 | 20 | 171 | 6.4 | 17.7 | 0.00 | 0.00 | 0.00 | 74 | 1015.3 |
| 20260903021814 | 20 | 199 | 4.8 | 17.7 | 0.00 | 0.00 | 0.00 | 74 | 1015.2 |
| 20260903021717 | 20 | 157 | 6.4 | 17.7 | 0.00 | 0.00 | 0.00 | 74 | 1015.2 |
| 20260903021638 | 21 | 173 | 6.4 | 17.7 | 0.00 | 0.00 | 0.00 | 74 | 1015.2 |
| 20260903021509 | 21 | 188 | 8.0 | 17.7 | 0.00 | 0.00 | 0.00 | 74 | 1015.3 |
| 20260903021424 | 21 | 207 | 8.0 | 17.7 | 0.00 | 0.00 | 0.00 | 74 | 1015.3 |
| 20260903021255 | 21 | 146 | 4.8 | 14.5 | 0.00 | 0.00 | 0.00 | 74 | 1015.3 |
| 20260903021154 | 21 | 206 | 3.2 | 14.5 | 0.00 | 0.00 | 0.00 | 74 | 1015.3 |
| 20260903021037 | 21 | 143 | 4.8 | 14.5 | 0.00 | 0.00 | 0.00 | 74 | 1015.3 |
| 20260903020940 | 21 | 196 | 6.4 | 14.5 | 0.00 | 0.00 | 0.00 | 74 | 1015.3 |
| 20260903020901 | 21 | 196 | 6.4 | 14.5 | 0.00 | 0.00 | 0.00 | 74 | 1015.3 |
| 20260903020808 | 21 | 195 | 6.4 | 14.5 | 0.00 | 0.00 | 0.00 | 74 | 1015.3 |
| 20260903020729 | 21 | 139 | 8.0 | 14.5 | 0.00 | 0.00 | 0.00 | 74 | 1015.3 |
| 20260903020601 | 21 | 168 | 8.0 | 14.5 | 0.00 | 0.00 | 0.00 | 74 | 1015.3 |
| 20260903020517 | 21 | 184 | 9.7 | 14.5 | 0.00 | 0.00 | 0.00 | 74 | 1015.3 |
| 20260903020347 | 21 | 236 | 9.7 | 14.5 | 0.00 | 0.00 | 0.00 | 74 | 1015.3 |
| 20260903020311 | 21 | 230 | 9.7 | 17.7 | 0.00 | 0.00 | 0.00 | 74 | 1015.3 |
| 20260903020023 | 21 | 203 | 6.4 | 17.7 | 0.00 | 0.00 | 0.00 | 74 | 1015.2 |
| 20260903015945 | 21 | 198 | 4.8 | 17.7 | 0.00 | 0.00 | 0.00 | 74 | 1015.1 |
| 20260903015829 | 21 | 189 | 6.4 | 17.7 | 0.00 | 0.00 | 0.00 | 74 | 1015.1 |
| 20260903015750 | 21 | 154 | 8.0 | 17.7 | 0.00 | 0.00 | 0.00 | 74 | 1015.1 |
| 20260903015621 | 21 | 181 | 8.0 | 17.7 | 0.00 | 0.00 | 0.00 | 74 | 1015.2 |
| 20260903015540 | 21 | 129 | 6.4 | 17.7 | 0.00 | 0.00 | 0.00 | 74 | 1015.2 |
| 20260903015410 | 21 | 140 | 6.4 | 17.7 | 0.00 | 0.00 | 0.00 | 74 | 1015.2 |
| 20260903015332 | 21 | 130 | 6.4 | 17.7 | 0.00 | 0.00 | 0.00 | 74 | 1015.2 |
| 20260903015136 | 21 | 161 | 11.3 | 17.7 | 0.00 | 0.00 | 0.00 | 74 | 1015.2 |
| 20260903015058 | 21 | 168 | 9.7 | 17.7 | 0.00 | 0.00 | 0.00 | 74 | 1015.3 |
| 20260903015005 | 21 | 181 | 8.0 | 12.9 | 0.00 | 0.00 | 0.00 | 74 | 1015.3 |
| 20260903014927 | 21 | 146 | 6.4 | 17.7 | 0.00 | 0.00 | 0.00 | 74 | 1015.3 |
| 20260903014731 | 21 | 170 | 8.0 | 17.7 | 0.00 | 0.00 | 0.00 | 74 | 1015.4 |
| 20260903014634 | 21 | 173 | 6.4 | 19.3 | 0.00 | 0.00 | 0.00 | 74 | 1015.5 |
| 20260903014524 | 21 | 169 | 6.4 | 20.9 | 0.00 | 0.00 | 0.00 | 74 | 1015.5 |
| 20260903014445 | 21 | 170 | 8.0 | 20.9 | 0.00 | 0.00 | 0.00 | 74 | 1015.4 |
| 20260903014244 | 21 | 173 | 8.0 | 20.9 | 0.00 | 0.00 | 0.00 | 74 | 1015.4 |
| 20260903014139 | 21 | 189 | 8.0 | 20.9 | 0.00 | 0.00 | 0.00 | 74 | 1015.5 |
| 20260903014009 | 21 | 192 | 9.7 | 20.9 | 0.00 | 0.00 | 0.00 | 74 | 1015.5 |
| 20260903013930 | 21 | 161 | 12.9 | 20.9 | 0.00 | 0.00 | 0.00 | 74 | 1015.5 |
| 20260903013735 | 20 | 187 | 12.9 | 19.3 | 0.00 | 0.00 | 0.00 | 74 | 1015.6 |
| 20260903013658 | 21 | 223 | 9.7 | 17.7 | 0.00 | 0.00 | 0.00 | 75 | 1015.6 |
| 20260903013524 | 20 | 151 | 6.4 | 12.9 | 0.00 | 0.00 | 0.00 | 75 | 1015.8 |
| 20260903013438 | 20 | 159 | 6.4 | 12.9 | 0.00 | 0.00 | 0.00 | 75 | 1015.8 |
| 20260903013313 | 20 | 172 | 8.0 | 12.9 | 0.00 | 0.00 | 0.00 | 75 | 1015.8 |
| 20260903013234 | 20 | 144 | 8.0 | 12.9 | 0.00 | 0.00 | 0.00 | 75 | 1015.8 |
| 20260903013105 | 20 | 159 | 6.4 | 11.3 | 0.00 | 0.00 | 0.00 | 75 | 1015.8 |
| 20260903013021 | 20 | 186 | 8.0 | 11.3 | 0.00 | 0.00 | 0.00 | 75 | 1015.9 |
| 20260903012830 | 20 | 169 | 4.8 | 12.9 | 0.00 | 0.00 | 0.00 | 75 | 1015.9 |
| 20260903012745 | 20 | 158 | 4.8 | 12.9 | 0.00 | 0.00 | 0.00 | 75 | 1016.0 |
| 20260903012535 | 20 | 173 | 6.4 | 12.9 | 0.00 | 0.00 | 0.00 | 75 | 1016.0 |
| 20260903012430 | 20 | 159 | 4.8 | 12.9 | 0.00 | 0.00 | 0.00 | 75 | 1016.0 |
| 20260903012324 | 21 | 140 | 4.8 | 12.9 | 0.00 | 0.00 | 0.00 | 75 | 1016.0 |
| 20260903012249 | 20 | 142 | 6.4 | 12.9 | 0.00 | 0.00 | 0.00 | 75 | 1015.9 |
| 20260903012119 | 20 | 154 | 4.8 | 14.5 | 0.00 | 0.00 | 0.00 | 75 | 1015.9 |
| 20260903012034 | 20 | 200 | 1.6 | 12.9 | 0.00 | 0.00 | 0.00 | 75 | 1015.9 |
| 20260903011904 | 20 | 273 | 4.8 | 12.9 | 0.00 | 0.00 | 0.00 | 75 | 1015.8 |
| 20260903011826 | 21 | 155 | 6.4 | 12.9 | 0.00 | 0.00 | 0.00 | 75 | 1015.8 |
| 20260903011631 | 21 | 190 | 6.4 | 12.9 | 0.00 | 0.00 | 0.00 | 75 | 1015.8 |
| 20260903011553 | 21 | 142 | 6.4 | 12.9 | 0.00 | 0.00 | 0.00 | 75 | 1015.8 |
| 20260903011438 | 21 | 147 | 6.4 | 14.5 | 0.00 | 0.00 | 0.00 | 75 | 1015.8 |
| 20260903011401 | 20 | 190 | 6.4 | 14.5 | 0.00 | 0.00 | 0.00 | 75 | 1015.8 |
| 20260903011223 | 21 | 159 | 8.0 | 14.5 | 0.00 | 0.00 | 0.00 | 75 | 1015.8 |
| 20260903011149 | 21 | 176 | 8.0 | 14.5 | 0.00 | 0.00 | 0.00 | 75 | 1015.7 |
| 20260903011021 | 21 | 192 | 4.8 | 14.5 | 0.00 | 0.00 | 0.00 | 75 | 1015.8 |
| 20260903010926 | 21 | 154 | 3.2 | 14.5 | 0.00 | 0.00 | 0.00 | 76 | 1015.8 |
| 20260903010746 | 21 | 131 | 8.0 | 14.5 | 0.00 | 0.00 | 0.00 | 76 | 1015.7 |
| 20260903010557 | 21 | 183 | 3.2 | 9.7 | 0.00 | 0.00 | 0.00 | 76 | 1015.6 |
| 20260903010450 | 21 | 164 | 3.2 | 9.7 | 0.00 | 0.00 | 0.00 | 76 | 1015.7 |
| 20260903010321 | 21 | 153 | 4.8 | 12.9 | 0.00 | 0.00 | 0.00 | 76 | 1015.6 |
| 20260903010242 | 21 | 154 | 4.8 | 12.9 | 0.00 | 0.00 | 0.00 | 75 | 1015.6 |
| 20260903010043 | 21 | 199 | 4.8 | 12.9 | 0.00 | 0.00 | 0.00 | 76 | 1015.6 |
| 20260903010005 | 21 | 171 | 4.8 | 12.9 | 0.00 | 0.00 | 0.00 | 76 | 1015.5 |
| 20260903005827 | 21 | 173 | 4.8 | 12.9 | 0.00 | 0.00 | 0.00 | 76 | 1015.6 |
| 20260903005743 | 21 | 196 | 4.8 | 12.9 | 0.00 | 0.00 | 0.00 | 76 | 1015.6 |
| 20260903005619 | 21 | 187 | 6.4 | 12.9 | 0.00 | 0.00 | 0.00 | 76 | 1015.6 |
| 20260903005541 | 21 | 207 | 6.4 | 11.3 | 0.00 | 0.00 | 0.00 | 76 | 1015.6 |
| 20260903005325 | 21 | 155 | 6.4 | 11.3 | 0.00 | 0.00 | 0.00 | 76 | 1015.5 |
| 20260903005247 | 21 | 182 | 4.8 | 11.3 | 0.00 | 0.00 | 0.00 | 76 | 1015.5 |
| 20260903005131 | 21 | 194 | 3.2 | 11.3 | 0.00 | 0.00 | 0.00 | 76 | 1015.5 |
| 20260903005053 | 21 | 198 | 4.8 | 11.3 | 0.00 | 0.00 | 0.00 | 76 | 1015.5 |
| 20260903005016 | 21 | 198 | 8.0 | 11.3 | 0.00 | 0.00 | 0.00 | 76 | 1015.5 |
| 20260903004920 | 21 | 192 | 8.0 | 12.9 | 0.00 | 0.00 | 0.00 | 75 | 1015.5 |
| 20260903004841 | 21 | 128 | 6.4 | 14.5 | 0.00 | 0.00 | 0.00 | 76 | 1015.5 |
| 20260903004712 | 21 | 146 | 6.4 | 14.5 | 0.00 | 0.00 | 0.00 | 76 | 1015.4 |
| 20260903004626 | 21 | 155 | 6.4 | 14.5 | 0.00 | 0.00 | 0.00 | 76 | 1015.4 |
| 20260903004442 | 21 | 174 | 4.8 | 14.5 | 0.00 | 0.00 | 0.00 | 76 | 1015.4 |
| 20260903004338 | 21 | 154 | 4.8 | 14.5 | 0.00 | 0.00 | 0.00 | 76 | 1015.4 |
| 20260903004223 | 21 | 190 | 8.0 | 14.5 | 0.00 | 0.00 | 0.00 | 76 | 1015.4 |
| 20260903004144 | 21 | 227 | 8.0 | 14.5 | 0.00 | 0.00 | 0.00 | 76 | 1015.4 |
| 20260903004016 | 21 | 171 | 6.4 | 16.1 | 0.00 | 0.00 | 0.00 | 76 | 1015.4 |
| 20260903003932 | 21 | 178 | 4.8 | 16.1 | 0.00 | 0.00 | 0.00 | 76 | 1015.4 |
| 20260903003802 | 21 | 178 | 6.4 | 16.1 | 0.00 | 0.00 | 0.00 | 76 | 1015.4 |
| 20260903003724 | 21 | 178 | 8.0 | 16.1 | 0.00 | 0.00 | 0.00 | 76 | 1015.4 |
| 20260903003529 | 20 | 173 | 8.0 | 16.1 | 0.00 | 0.00 | 0.00 | 76 | 1015.4 |
| 20260903003505 | 20 | 115 | 6.4 | 16.1 | 0.00 | 0.00 | 0.00 | 77 | 1015.3 |
| 20260903003244 | 20 | 170 | 6.4 | 17.7 | 0.00 | 0.00 | 0.00 | 77 | 1015.3 |
| 20260903003139 | 20 | 157 | 4.8 | 12.9 | 0.00 | 0.00 | 0.00 | 77 | 1015.3 |
| 20260903003024 | 20 | 181 | 8.0 | 12.9 | 0.00 | 0.00 | 0.00 | 77 | 1015.3 |
| 20260903002946 | 20 | 171 | 8.0 | 12.9 | 0.00 | 0.00 | 0.00 | 77 | 1015.3 |
| 20260903002818 | 20 | 153 | 6.4 | 12.9 | 0.00 | 0.00 | 0.00 | 77 | 1015.3 |
| 20260903002730 | 20 | 194 | 6.4 | 12.9 | 0.00 | 0.00 | 0.00 | 78 | 1015.3 |
| 20260903002601 | 20 | 159 | 8.0 | 12.9 | 0.00 | 0.00 | 0.00 | 78 | 1015.4 |
| 20260903002502 | 20 | 174 | 6.4 | 14.5 | 0.00 | 0.00 | 0.00 | 77 | 1015.4 |
| 20260903002405 | 20 | 159 | 6.4 | 14.5 | 0.00 | 0.00 | 0.00 | 78 | 1015.4 |
| 20260903002325 | 20 | 168 | 4.8 | 14.5 | 0.00 | 0.00 | 0.00 | 78 | 1015.4 |
| 20260903002140 | 20 | 140 | 3.2 | 14.5 | 0.00 | 0.00 | 0.00 | 78 | 1015.5 |
| 20260903002037 | 20 | 169 | 6.4 | 14.5 | 0.00 | 0.00 | 0.00 | 78 | 1015.5 |
| 20260903001959 | 20 | 238 | 6.4 | 14.5 | 0.00 | 0.00 | 0.00 | 77 | 1015.4 |
| 20260903001904 | 20 | 173 | 6.4 | 14.5 | 0.00 | 0.00 | 0.00 | 77 | 1015.4 |
| 20260903001827 | 20 | 217 | 6.4 | 14.5 | 0.00 | 0.00 | 0.00 | 77 | 1015.4 |
| 20260903001628 | 20 | 238 | 3.2 | 14.5 | 0.00 | 0.00 | 0.00 | 77 | 1015.3 |
| 20260903001542 | 20 | 203 | 3.2 | 14.5 | 0.00 | 0.00 | 0.00 | 77 | 1015.4 |
| 20260903001426 | 20 | 202 | 6.4 | 14.5 | 0.00 | 0.00 | 0.00 | 77 | 1015.3 |
| 20260903001351 | 20 | 198 | 6.4 | 14.5 | 0.00 | 0.00 | 0.00 | 77 | 1015.2 |
| 20260903001307 | 20 | 184 | 8.0 | 14.5 | 0.00 | 0.00 | 0.00 | 77 | 1015.2 |
| 20260903001128 | 20 | 215 | 8.0 | 14.5 | 0.00 | 0.00 | 0.00 | 77 | 1015.1 |
| 20260903001045 | 20 | 122 | 6.4 | 14.5 | 0.00 | 0.00 | 0.00 | 77 | 1015.1 |
| 20260903000915 | 20 | 163 | 6.4 | 12.9 | 0.00 | 0.00 | 0.00 | 78 | 1014.9 |
| 20260903000838 | 20 | 185 | 6.4 | 12.9 | 0.00 | 0.00 | 0.00 | 78 | 1014.9 |
| 20260903000709 | 20 | 156 | 4.8 | 12.9 | 0.00 | 0.00 | 0.00 | 78 | 1014.9 |
| 20260903000633 | 20 | 132 | 4.8 | 12.9 | 0.00 | 0.00 | 0.00 | 78 | 1014.9 |
| 20260903000417 | 20 | 193 | 6.4 | 14.5 | 0.00 | 0.00 | 0.00 | 78 | 1015.0 |
| 20260903000347 | 20 | 159 | 8.0 | 14.5 | 0.00 | 0.00 | 0.00 | 78 | 1014.9 |
| 20260903000242 | 20 | 175 | 6.4 | 14.5 | 0.00 | 0.00 | 0.00 | 78 | 1014.9 |
| 20260903000134 | 20 | 163 | 8.0 | 14.5 | 0.00 | 0.00 | 0.00 | 78 | 1014.9 |
| 20260902235945 | 20 | 166 | 8.0 | 14.5 | 0.00 | 0.00 | 0.00 | 78 | 1014.9 |
| 20260902235841 | 20 | 175 | 8.0 | 14.5 | 0.00 | 0.00 | 0.00 | 78 | 1015.0 |
| 20260902235726 | 20 | 166 | 8.0 | 14.5 | 0.00 | 0.00 | 0.00 | 78 | 1015.1 |
| 20260902235648 | 20 | 162 | 8.0 | 14.5 | 0.00 | 0.00 | 0.00 | 78 | 1015.1 |
| 20260902235519 | 20 | 140 | 8.0 | 16.1 | 0.00 | 0.00 | 0.00 | 78 | 1015.2 |
| 20260902235433 | 20 | 121 | 6.4 | 14.5 | 0.00 | 0.00 | 0.00 | 78 | 1015.2 |
| 20260902235306 | 20 | 190 | 8.0 | 14.5 | 0.00 | 0.00 | 0.00 | 78 | 1015.3 |
| 20260902235225 | 20 | 147 | 8.0 | 14.5 | 0.00 | 0.00 | 0.00 | 78 | 1015.3 |
| 20260902235100 | 20 | 148 | 8.0 | 14.5 | 0.00 | 0.00 | 0.00 | 78 | 1015.4 |
| 20260902235016 | 20 | 172 | 6.4 | 12.9 | 0.00 | 0.00 | 0.00 | 78 | 1015.3 |
| 20260902234826 | 20 | 161 | 4.8 | 12.9 | 0.00 | 0.00 | 0.00 | 78 | 1015.3 |
| 20260902234740 | 20 | 159 | 4.8 | 12.9 | 0.00 | 0.00 | 0.00 | 78 | 1015.4 |
| 20260902234611 | 20 | 205 | 6.4 | 12.9 | 0.00 | 0.00 | 0.00 | 78 | 1015.5 |
| 20260902234532 | 20 | 200 | 6.4 | 12.9 | 0.00 | 0.00 | 0.00 | 77 | 1015.5 |
| 20260902234336 | 20 | 180 | 4.8 | 9.7 | 0.00 | 0.00 | 0.00 | 77 | 1015.5 |
| 20260902234257 | 20 | 188 | 4.8 | 9.7 | 0.00 | 0.00 | 0.00 | 77 | 1015.5 |
| 20260902234142 | 20 | 219 | 6.4 | 9.7 | 0.00 | 0.00 | 0.00 | 77 | 1015.5 |
| 20260902234103 | 20 | 207 | 6.4 | 9.7 | 0.00 | 0.00 | 0.00 | 78 | 1015.5 |
| 20260902233910 | 20 | 200 | 6.4 | 9.7 | 0.00 | 0.00 | 0.00 | 77 | 1015.4 |
| 20260902233831 | 20 | 184 | 4.8 | 9.7 | 0.00 | 0.00 | 0.00 | 77 | 1015.4 |
| 20260902233643 | 20 | 157 | 3.2 | 8.0 | 0.00 | 0.00 | 0.00 | 78 | 1015.3 |
| 20260902233538 | 20 | 147 | 4.8 | 8.0 | 0.00 | 0.00 | 0.00 | 78 | 1015.4 |
| 20260902233423 | 20 | 154 | 6.4 | 8.0 | 0.00 | 0.00 | 0.00 | 77 | 1015.4 |
| 20260902233344 | 20 | 161 | 4.8 | 8.0 | 0.00 | 0.00 | 0.00 | 78 | 1015.4 |
| 20260902233308 | 20 | 145 | 4.8 | 8.0 | 0.00 | 0.00 | 0.00 | 78 | 1015.4 |
| 20260902233213 | 20 | 166 | 4.8 | 9.7 | 0.00 | 0.00 | 0.00 | 78 | 1015.4 |
| 20260902233134 | 20 | 151 | 3.2 | 9.7 | 0.00 | 0.00 | 0.00 | 78 | 1015.4 |
| 20260902233005 | 20 | 146 | 1.6 | 11.3 | 0.00 | 0.00 | 0.00 | 78 | 1015.3 |
| 20260902232925 | 20 | 146 | 3.2 | 11.3 | 0.00 | 0.00 | 0.00 | 78 | 1015.3 |
| 20260902232742 | 20 | 154 | 4.8 | 12.9 | 0.00 | 0.00 | 0.00 | 78 | 1015.3 |
| 20260902232534 | 20 | 148 | 3.2 | 12.9 | 0.00 | 0.00 | 0.00 | 77 | 1015.3 |
| 20260902232448 | 20 | 146 | 3.2 | 12.9 | 0.00 | 0.00 | 0.00 | 78 | 1015.3 |
| 20260902232318 | 20 | 143 | 4.8 | 12.9 | 0.00 | 0.00 | 0.00 | 77 | 1015.4 |
| 20260902232219 | 20 | 145 | 6.4 | 12.9 | 0.00 | 0.00 | 0.00 | 77 | 1015.4 |
| 20260902232041 | 21 | 139 | 4.8 | 12.9 | 0.00 | 0.00 | 0.00 | 77 | 1015.5 |
| 20260902231943 | 21 | 119 | 1.6 | 11.3 | 0.00 | 0.00 | 0.00 | 77 | 1015.6 |
| 20260902231828 | 21 | 146 | 4.8 | 11.3 | 0.00 | 0.00 | 0.00 | 77 | 1015.7 |
| 20260902231749 | 21 | 151 | 6.4 | 11.3 | 0.00 | 0.00 | 0.00 | 76 | 1015.8 |
| 20260902231617 | 21 | 145 | 4.8 | 14.5 | 0.00 | 0.00 | 0.00 | 76 | 1015.9 |
| 20260902231538 | 21 | 163 | 4.8 | 14.5 | 0.00 | 0.00 | 0.00 | 76 | 1015.9 |
| 20260902231419 | 21 | 236 | 4.8 | 14.5 | 0.00 | 0.00 | 0.00 | 76 | 1015.9 |
| 20260902231335 | 21 | 154 | 4.8 | 14.5 | 0.00 | 0.00 | 0.00 | 76 | 1015.9 |
| 20260902231205 | 21 | 223 | 4.8 | 14.5 | 0.00 | 0.00 | 0.00 | 76 | 1015.9 |
| 20260902231126 | 21 | 156 | 6.4 | 14.5 | 0.00 | 0.00 | 0.00 | 76 | 1015.9 |
| 20260902230958 | 21 | 184 | 6.4 | 14.5 | 0.00 | 0.00 | 0.00 | 76 | 1015.8 |
| 20260902230832 | 21 | 153 | 8.0 | 14.5 | 0.00 | 0.00 | 0.00 | 76 | 1015.9 |
| 20260902230755 | 21 | 163 | 8.0 | 16.1 | 0.00 | 0.00 | 0.00 | 76 | 1015.9 |
| 20260902230700 | 21 | 192 | 6.4 | 14.5 | 0.00 | 0.00 | 0.00 | 76 | 1015.9 |
| 20260902230622 | 21 | 182 | 6.4 | 14.5 | 0.00 | 0.00 | 0.00 | 76 | 1015.9 |
| 20260902230430 | 21 | 183 | 3.2 | 24.1 | 0.00 | 0.00 | 0.00 | 76 | 1015.9 |
| 20260902230332 | 21 | 144 | 4.8 | 24.1 | 0.00 | 0.00 | 0.00 | 76 | 1015.9 |
| 20260902230237 | 21 | 173 | 4.8 | 24.1 | 0.00 | 0.00 | 0.00 | 76 | 1015.9 |
| 20260902230140 | 21 | 171 | 4.8 | 24.1 | 0.00 | 0.00 | 0.00 | 76 | 1015.9 |
| 20260902230056 | 21 | 167 | 6.4 | 24.1 | 0.00 | 0.00 | 0.00 | 76 | 1015.9 |
| 20260902230018 | 21 | 173 | 6.4 | 24.1 | 0.00 | 0.00 | 0.00 | 76 | 1015.9 |
| 20260902225940 | 21 | 133 | 8.0 | 24.1 | 0.00 | 0.00 | 0.00 | 76 | 1015.9 |
| 20260902225723 | 21 | 180 | 11.3 | 24.1 | 0.00 | 0.00 | 0.00 | 75 | 1016.0 |
| 20260902225646 | 21 | 165 | 8.0 | 25.7 | 0.00 | 0.00 | 0.00 | 76 | 1016.0 |
| 20260902225535 | 21 | 169 | 4.8 | 14.5 | 0.00 | 0.00 | 0.00 | 76 | 1015.9 |
| 20260902225458 | 21 | 159 | 4.8 | 14.5 | 0.00 | 0.00 | 0.00 | 76 | 1016.0 |
| 20260902225341 | 21 | 157 | 3.2 | 14.5 | 0.00 | 0.00 | 0.00 | 76 | 1016.0 |
| 20260902225306 | 21 | 188 | 6.4 | 14.5 | 0.00 | 0.00 | 0.00 | 75 | 1016.0 |
| 20260902225134 | 21 | 179 | 6.4 | 14.5 | 0.00 | 0.00 | 0.00 | 76 | 1016.1 |
| 20260902225028 | 21 | 114 | 4.8 | 14.5 | 0.00 | 0.00 | 0.00 | 76 | 1016.1 |
| 20260902224858 | 21 | 173 | 9.7 | 14.5 | 0.00 | 0.00 | 0.00 | 75 | 1016.2 |
| 20260902224820 | 21 | 190 | 9.7 | 14.5 | 0.00 | 0.00 | 0.00 | 75 | 1016.2 |
| 20260902224642 | 21 | 151 | 8.0 | 16.1 | 0.00 | 0.00 | 0.00 | 75 | 1016.2 |
| 20260902224545 | 21 | 213 | 9.7 | 14.5 | 0.00 | 0.00 | 0.00 | 75 | 1016.2 |
| 20260902224435 | 21 | 171 | 8.0 | 14.5 | 0.00 | 0.00 | 0.00 | 75 | 1016.3 |
| 20260902224357 | 21 | 93 | 4.8 | 14.5 | 0.00 | 0.00 | 0.00 | 75 | 1016.2 |
| 20260902224320 | 21 | 137 | 6.4 | 14.5 | 0.00 | 0.00 | 0.00 | 75 | 1016.3 |
| 20260902224225 | 21 | 175 | 8.0 | 14.5 | 0.00 | 0.00 | 0.00 | 75 | 1016.4 |
| 20260902224125 | 21 | 175 | 6.4 | 14.5 | 0.00 | 0.00 | 0.00 | 75 | 1016.4 |
| 20260902223929 | 21 | 136 | 3.2 | 14.5 | 0.00 | 0.00 | 0.00 | 75 | 1016.6 |
| 20260902223832 | 21 | 200 | 4.8 | 14.5 | 0.00 | 0.00 | 0.00 | 75 | 1016.6 |
| 20260902223737 | 21 | 235 | 4.8 | 14.5 | 0.00 | 0.00 | 0.00 | 75 | 1016.6 |
| 20260902223658 | 21 | 237 | 4.8 | 16.1 | 0.00 | 0.00 | 0.00 | 75 | 1016.6 |
| 20260902223622 | 21 | 248 | 3.2 | 16.1 | 0.00 | 0.00 | 0.00 | 75 | 1016.6 |
| 20260902223527 | 21 | 211 | 3.2 | 16.1 | 0.00 | 0.00 | 0.00 | 75 | 1016.5 |
| 20260902223432 | 21 | 205 | 3.2 | 16.1 | 0.00 | 0.00 | 0.00 | 75 | 1016.5 |
| 20260902223243 | 21 | 128 | 8.0 | 16.1 | 0.00 | 0.00 | 0.00 | 75 | 1016.4 |
| 20260902223156 | 21 | 161 | 6.4 | 16.1 | 0.00 | 0.00 | 0.00 | 75 | 1016.4 |
| 20260902223006 | 21 | 157 | 8.0 | 22.5 | 0.00 | 0.00 | 0.00 | 75 | 1016.2 |
| 20260902222929 | 21 | 194 | 8.0 | 22.5 | 0.00 | 0.00 | 0.00 | 75 | 1016.2 |
| 20260902222752 | 21 | 173 | 4.8 | 22.5 | 0.00 | 0.00 | 0.00 | 75 | 1016.1 |
| 20260902222724 | 21 | 142 | 4.8 | 22.5 | 0.00 | 0.00 | 0.00 | 75 | 1016.1 |
| 20260902222556 | 21 | 118 | 6.4 | 22.5 | 0.00 | 0.00 | 0.00 | 75 | 1016.1 |
| 20260902222511 | 21 | 156 | 8.0 | 22.5 | 0.00 | 0.00 | 0.00 | 75 | 1016.1 |
| 20260902222250 | 21 | 165 | 9.7 | 24.1 | 0.00 | 0.00 | 0.00 | 75 | 1016.3 |
| 20260902222152 | 21 | 223 | 8.0 | 24.1 | 0.00 | 0.00 | 0.00 | 75 | 1016.4 |
| 20260902222042 | 21 | 184 | 11.3 | 24.1 | 0.00 | 0.00 | 0.00 | 75 | 1016.4 |
| 20260902222002 | 21 | 125 | 9.7 | 24.1 | 0.00 | 0.00 | 0.00 | 75 | 1016.4 |
| 20260902221834 | 21 | 166 | 8.0 | 24.1 | 0.00 | 0.00 | 0.00 | 75 | 1016.5 |
| 20260902221728 | 21 | 109 | 12.9 | 24.1 | 0.00 | 0.00 | 0.00 | 75 | 1016.5 |
| 20260902221559 | 21 | 164 | 9.7 | 24.1 | 0.00 | 0.00 | 0.00 | 75 | 1016.5 |
| 20260902221521 | 21 | 179 | 9.7 | 19.3 | 0.00 | 0.00 | 0.00 | 75 | 1016.5 |
| 20260902221332 | 21 | 140 | 9.7 | 22.5 | 0.00 | 0.00 | 0.00 | 75 | 1016.6 |
| 20260902221253 | 21 | 156 | 8.0 | 22.5 | 0.00 | 0.00 | 0.00 | 76 | 1016.6 |
| 20260902221123 | 21 | 163 | 6.4 | 22.5 | 0.00 | 0.00 | 0.00 | 75 | 1016.6 |
| 20260902221017 | 21 | 159 | 6.4 | 22.5 | 0.00 | 0.00 | 0.00 | 76 | 1016.6 |
| 20260902220828 | 21 | 171 | 8.0 | 22.5 | 0.00 | 0.00 | 0.00 | 76 | 1016.7 |
| 20260902220742 | 21 | 180 | 8.0 | 22.5 | 0.00 | 0.00 | 0.00 | 76 | 1016.7 |
| 20260902220617 | 21 | 171 | 9.7 | 22.5 | 0.00 | 0.00 | 0.00 | 75 | 1016.7 |
| 20260902220540 | 21 | 148 | 9.7 | 22.5 | 0.00 | 0.00 | 0.00 | 76 | 1016.7 |
| 20260902220410 | 21 | 146 | 8.0 | 16.1 | 0.00 | 0.00 | 0.00 | 76 | 1016.8 |
| 20260902220325 | 21 | 170 | 8.0 | 16.1 | 0.00 | 0.00 | 0.00 | 76 | 1016.8 |
| 20260902220155 | 21 | 154 | 9.7 | 16.1 | 0.00 | 0.00 | 0.00 | 75 | 1017.0 |
| 20260902220118 | 21 | 134 | 9.7 | 16.1 | 0.00 | 0.00 | 0.00 | 76 | 1017.0 |
| 20260902220002 | 21 | 173 | 9.7 | 16.1 | 0.00 | 0.00 | 0.00 | 75 | 1017.2 |
| 20260902215923 | 21 | 144 | 9.7 | 16.1 | 0.00 | 0.00 | 0.00 | 75 | 1017.2 |
| 20260902215754 | 21 | 163 | 8.0 | 16.1 | 0.00 | 0.00 | 0.00 | 75 | 1017.3 |
| 20260902215707 | 21 | 169 | 4.8 | 16.1 | 0.00 | 0.00 | 0.00 | 75 | 1017.3 |
| 20260902215539 | 21 | 188 | 4.8 | 16.1 | 0.00 | 0.00 | 0.00 | 75 | 1017.3 |
| 20260902215440 | 21 | 171 | 6.4 | 16.1 | 0.00 | 0.00 | 0.00 | 75 | 1017.3 |
| 20260902215311 | 21 | 227 | 9.7 | 16.1 | 0.00 | 0.00 | 0.00 | 75 | 1017.3 |
| 20260902215229 | 21 | 146 | 9.7 | 19.3 | 0.00 | 0.00 | 0.00 | 75 | 1017.3 |
| 20260902215101 | 21 | 146 | 4.8 | 17.7 | 0.00 | 0.00 | 0.00 | 75 | 1017.3 |
| 20260902215024 | 21 | 192 | 6.4 | 17.7 | 0.00 | 0.00 | 0.00 | 75 | 1017.3 |
| 20260902214829 | 21 | 185 | 6.4 | 17.7 | 0.00 | 0.00 | 0.00 | 75 | 1017.4 |
| 20260902214751 | 21 | 173 | 8.0 | 17.7 | 0.00 | 0.00 | 0.00 | 75 | 1017.4 |
| 20260902214636 | 21 | 205 | 12.9 | 17.7 | 0.00 | 0.00 | 0.00 | 74 | 1017.3 |
| 20260902214601 | 21 | 169 | 14.5 | 17.7 | 0.00 | 0.00 | 0.00 | 74 | 1017.3 |
| 20260902214521 | 21 | 157 | 12.9 | 17.7 | 0.00 | 0.00 | 0.00 | 74 | 1017.3 |
| 20260902214427 | 22 | 157 | 11.3 | 19.3 | 0.00 | 0.00 | 0.00 | 74 | 1017.3 |
| 20260902214329 | 22 | 197 | 9.7 | 14.5 | 0.00 | 0.00 | 0.00 | 74 | 1017.3 |
| 20260902214138 | 22 | 175 | 8.0 | 14.5 | 0.00 | 0.00 | 0.00 | 74 | 1017.2 |
| 20260902214041 | 22 | 213 | 8.0 | 11.3 | 0.00 | 0.00 | 0.00 | 74 | 1017.2 |
| 20260902213944 | 22 | 160 | 6.4 | 11.3 | 0.00 | 0.00 | 0.00 | 74 | 1017.2 |
| 20260902213837 | 22 | 162 | 6.4 | 11.3 | 0.00 | 0.00 | 0.00 | 74 | 1017.3 |
| 20260902213741 | 22 | 128 | 8.0 | 12.9 | 0.00 | 0.00 | 0.00 | 74 | 1017.3 |
| 20260902213643 | 22 | 186 | 8.0 | 12.9 | 0.00 | 0.00 | 0.00 | 75 | 1017.3 |
| 20260902213607 | 22 | 164 | 8.0 | 12.9 | 0.00 | 0.00 | 0.00 | 74 | 1017.3 |
| 20260902213511 | 22 | 145 | 8.0 | 14.5 | 0.00 | 0.00 | 0.00 | 75 | 1017.4 |
| 20260902213433 | 22 | 167 | 6.4 | 12.9 | 0.00 | 0.00 | 0.00 | 75 | 1017.4 |
| 20260902213305 | 22 | 207 | 6.4 | 12.9 | 0.00 | 0.00 | 0.00 | 74 | 1017.4 |
| 20260902213224 | 22 | 159 | 6.4 | 12.9 | 0.00 | 0.00 | 0.00 | 74 | 1017.4 |
| 20260902213054 | 22 | 159 | 9.7 | 12.9 | 0.00 | 0.00 | 0.00 | 74 | 1017.5 |
| 20260902213016 | 22 | 150 | 8.0 | 14.5 | 0.00 | 0.00 | 0.00 | 74 | 1017.5 |
| 20260902212841 | 22 | 177 | 6.4 | 12.9 | 0.00 | 0.00 | 0.00 | 74 | 1017.5 |
| 20260902212744 | 22 | 175 | 6.4 | 12.9 | 0.00 | 0.00 | 0.00 | 74 | 1017.5 |
| 20260902212628 | 22 | 164 | 6.4 | 12.9 | 0.00 | 0.00 | 0.00 | 74 | 1017.5 |
| 20260902212550 | 22 | 204 | 6.4 | 12.9 | 0.00 | 0.00 | 0.00 | 74 | 1017.5 |
| 20260902212513 | 22 | 190 | 6.4 | 14.5 | 0.00 | 0.00 | 0.00 | 74 | 1017.6 |
| 20260902212418 | 22 | 200 | 8.0 | 14.5 | 0.00 | 0.00 | 0.00 | 74 | 1017.6 |
| 20260902212340 | 22 | 229 | 8.0 | 14.5 | 0.00 | 0.00 | 0.00 | 73 | 1017.6 |
| 20260902212210 | 22 | 202 | 6.4 | 14.5 | 0.00 | 0.00 | 0.00 | 74 | 1017.6 |
| 20260902212130 | 22 | 227 | 6.4 | 14.5 | 0.00 | 0.00 | 0.00 | 74 | 1017.6 |
| 20260902212001 | 22 | 171 | 4.8 | 11.3 | 0.00 | 0.00 | 0.00 | 74 | 1017.6 |
| 20260902211923 | 22 | 171 | 4.8 | 11.3 | 0.00 | 0.00 | 0.00 | 73 | 1017.6 |
| 20260902211724 | 22 | 161 | 6.4 | 11.3 | 0.00 | 0.00 | 0.00 | 74 | 1017.6 |
| 20260902211647 | 22 | 196 | 4.8 | 11.3 | 0.00 | 0.00 | 0.00 | 73 | 1017.5 |
| 20260902211533 | 22 | 187 | 3.2 | 11.3 | 0.00 | 0.00 | 0.00 | 73 | 1017.6 |
| 20260902211455 | 22 | 167 | 4.8 | 11.3 | 0.00 | 0.00 | 0.00 | 73 | 1017.6 |
| 20260902211418 | 22 | 171 | 4.8 | 12.9 | 0.00 | 0.00 | 0.00 | 73 | 1017.6 |
| 20260902211241 | 22 | 140 | 4.8 | 12.9 | 0.00 | 0.00 | 0.00 | 73 | 1017.6 |
| 20260902211201 | 22 | 198 | 3.2 | 12.9 | 0.00 | 0.00 | 0.00 | 73 | 1017.6 |
| 20260902211050 | 22 | 175 | 3.2 | 12.9 | 0.00 | 0.00 | 0.00 | 73 | 1017.6 |
| 20260902210950 | 22 | 196 | 4.8 | 12.9 | 0.00 | 0.00 | 0.00 | 73 | 1017.5 |
| 20260902210800 | 22 | 193 | 6.4 | 16.1 | 0.00 | 0.00 | 0.00 | 72 | 1017.5 |
| 20260902210715 | 22 | 223 | 8.0 | 16.1 | 0.00 | 0.00 | 0.00 | 72 | 1017.6 |
| 20260902210527 | 22 | 156 | 8.0 | 16.1 | 0.00 | 0.00 | 0.00 | 72 | 1017.6 |
| 20260902210440 | 22 | 171 | 8.0 | 16.1 | 0.00 | 0.00 | 0.00 | 72 | 1017.6 |
| 20260902210312 | 22 | 197 | 6.4 | 16.1 | 0.00 | 0.00 | 0.00 | 72 | 1017.6 |
| 20260902210233 | 22 | 244 | 8.0 | 16.1 | 0.00 | 0.00 | 0.00 | 73 | 1017.6 |
| 20260902210037 | 22 | 197 | 8.0 | 16.1 | 0.00 | 0.00 | 0.00 | 73 | 1017.6 |
| 20260902210000 | 22 | 184 | 6.4 | 12.9 | 0.00 | 0.00 | 0.00 | 73 | 1017.6 |
| 20260902205848 | 22 | 184 | 6.4 | 11.3 | 0.00 | 0.00 | 0.00 | 73 | 1017.6 |
| 20260902205729 | 22 | 155 | 8.0 | 11.3 | 0.00 | 0.00 | 0.00 | 72 | 1017.6 |
| 20260902205636 | 22 | 205 | 4.8 | 12.9 | 0.00 | 0.00 | 0.00 | 72 | 1017.5 |
| 20260902205557 | 22 | 205 | 4.8 | 12.9 | 0.00 | 0.00 | 0.00 | 74 | 1017.4 |
| 20260902205520 | 22 | 182 | 1.6 | 12.9 | 0.00 | 0.00 | 0.00 | 74 | 1017.3 |
| 20260902205405 | 22 | 138 | 1.6 | 12.9 | 0.00 | 0.00 | 0.00 | 74 | 1017.3 |
| 20260902205326 | 22 | 138 | 3.2 | 12.9 | 0.00 | 0.00 | 0.00 | 74 | 1017.3 |
| 20260902205157 | 22 | 169 | 4.8 | 12.9 | 0.00 | 0.00 | 0.00 | 74 | 1017.3 |
| 20260902205051 | 22 | 160 | 4.8 | 12.9 | 0.00 | 0.00 | 0.00 | 73 | 1017.3 |
| 20260902204921 | 22 | 132 | 8.0 | 12.9 | 0.00 | 0.00 | 0.00 | 74 | 1017.3 |
| 20260902204843 | 22 | 169 | 9.7 | 12.9 | 0.00 | 0.00 | 0.00 | 73 | 1017.3 |
| 20260902204714 | 22 | 162 | 9.7 | 12.9 | 0.00 | 0.00 | 0.00 | 73 | 1017.1 |
| 20260902204633 | 22 | 190 | 8.0 | 12.9 | 0.00 | 0.00 | 0.00 | 73 | 1017.1 |
| 20260902204444 | 22 | 170 | 8.0 | 12.9 | 0.00 | 0.00 | 0.00 | 73 | 1017.1 |
| 20260902204341 | 22 | 131 | 6.4 | 11.3 | 0.00 | 0.00 | 0.00 | 73 | 1017.2 |
| 20260902204224 | 22 | 173 | 6.4 | 11.3 | 0.00 | 0.00 | 0.00 | 73 | 1017.2 |
| 20260902204127 | 22 | 179 | 6.4 | 19.3 | 0.00 | 0.00 | 0.00 | 73 | 1017.3 |
| 20260902204053 | 22 | 181 | 6.4 | 19.3 | 0.00 | 0.00 | 0.00 | 73 | 1017.3 |
| 20260902204015 | 22 | 178 | 6.4 | 19.3 | 0.00 | 0.00 | 0.00 | 73 | 1017.3 |
| 20260902203937 | 22 | 153 | 4.8 | 19.3 | 0.00 | 0.00 | 0.00 | 73 | 1017.3 |
| 20260902203725 | 22 | 166 | 3.2 | 19.3 | 0.00 | 0.00 | 0.00 | 74 | 1017.4 |
| 20260902203649 | 22 | 142 | 3.2 | 19.3 | 0.00 | 0.00 | 0.00 | 73 | 1017.5 |
| 20260902203553 | 22 | 230 | 3.2 | 19.3 | 0.00 | 0.00 | 0.00 | 73 | 1017.5 |
| 20260902203514 | 22 | 185 | 4.8 | 19.3 | 0.00 | 0.00 | 0.00 | 73 | 1017.5 |
| 20260902203346 | 22 | 163 | 6.4 | 19.3 | 0.00 | 0.00 | 0.00 | 72 | 1017.5 |
| 20260902203259 | 22 | 184 | 4.8 | 11.3 | 0.00 | 0.00 | 0.00 | 72 | 1017.6 |
| 20260902203130 | 22 | 157 | 4.8 | 12.9 | 0.00 | 0.00 | 0.00 | 73 | 1017.6 |
| 20260902203031 | 22 | 126 | 3.2 | 16.1 | 0.00 | 0.00 | 0.00 | 73 | 1017.6 |
| 20260902202835 | 22 | 173 | 4.8 | 16.1 | 0.00 | 0.00 | 0.00 | 72 | 1017.6 |
| 20260902202758 | 22 | 134 | 6.4 | 16.1 | 0.00 | 0.00 | 0.00 | 72 | 1017.7 |
| 20260902202627 | 22 | 131 | 4.8 | 16.1 | 0.00 | 0.00 | 0.00 | 72 | 1017.7 |
| 20260902202542 | 22 | 188 | 6.4 | 17.7 | 0.00 | 0.00 | 0.00 | 72 | 1017.7 |
| 20260902202413 | 22 | 180 | 11.3 | 17.7 | 0.00 | 0.00 | 0.00 | 71 | 1017.6 |
| 20260902202315 | 22 | 163 | 9.7 | 17.7 | 0.00 | 0.00 | 0.00 | 72 | 1017.7 |
| 20260902202216 | 22 | 154 | 9.7 | 17.7 | 0.00 | 0.00 | 0.00 | 72 | 1017.6 |
| 20260902202121 | 22 | 182 | 8.0 | 17.7 | 0.00 | 0.00 | 0.00 | 72 | 1017.7 |
| 20260902202041 | 22 | 151 | 8.0 | 17.7 | 0.00 | 0.00 | 0.00 | 72 | 1017.7 |
| 20260902201911 | 22 | 184 | 6.4 | 20.9 | 0.00 | 0.00 | 0.00 | 73 | 1017.8 |
| 20260902201825 | 22 | 165 | 9.7 | 20.9 | 0.00 | 0.00 | 0.00 | 72 | 1017.8 |
| 20260902201656 | 22 | 155 | 11.3 | 20.9 | 0.00 | 0.00 | 0.00 | 71 | 1017.9 |
| 20260902201618 | 22 | 122 | 4.8 | 20.9 | 0.00 | 0.00 | 0.00 | 73 | 1017.9 |
| 20260902201446 | 22 | 198 | 4.8 | 20.9 | 0.00 | 0.00 | 0.00 | 73 | 1017.9 |
| 20260902201348 | 22 | 202 | 6.4 | 20.9 | 0.00 | 0.00 | 0.00 | 72 | 1017.9 |
| 20260902201218 | 22 | 210 | 11.3 | 20.9 | 0.00 | 0.00 | 0.00 | 71 | 1017.9 |
| 20260902201113 | 22 | 208 | 8.0 | 20.9 | 0.00 | 0.00 | 0.00 | 72 | 1017.9 |
| 20260902200843 | 22 | 168 | 9.7 | 17.7 | 0.00 | 0.00 | 0.00 | 71 | 1017.9 |
| 20260902200738 | 22 | 154 | 9.7 | 17.7 | 0.00 | 0.00 | 0.00 | 72 | 1017.9 |
| 20260902200624 | 22 | 142 | 6.4 | 16.1 | 0.00 | 0.00 | 0.00 | 72 | 1017.9 |
| 20260902200556 | 22 | 189 | 6.4 | 24.1 | 0.00 | 0.00 | 0.00 | 72 | 1017.9 |
| 20260902200519 | 22 | 196 | 6.4 | 24.1 | 0.00 | 0.00 | 0.00 | 72 | 1017.9 |
| 20260902200327 | 22 | 170 | 6.4 | 24.1 | 0.00 | 0.00 | 0.00 | 72 | 1017.9 |
| 20260902200241 | 22 | 263 | 9.7 | 24.1 | 0.00 | 0.00 | 0.00 | 72 | 1017.9 |
| 20260902200110 | 22 | 168 | 6.4 | 24.1 | 0.00 | 0.00 | 0.00 | 72 | 1017.9 |
| 20260902200012 | 22 | 190 | 8.0 | 22.5 | 0.00 | 0.00 | 0.00 | 72 | 1017.9 |
| 20260902195817 | 22 | 223 | 12.9 | 22.5 | 0.00 | 0.00 | 0.00 | 70 | 1017.9 |
| 20260902195742 | 22 | 192 | 12.9 | 24.1 | 0.00 | 0.00 | 0.00 | 72 | 1018.0 |